[{"header": {"dx": 0.06612293990616946, "dy": 0.0552356325346848, "nx": 98, "ny": 59, "la1": 35.046912555036876, "la2": 31.78801023549047, "lo1": -121.43107172385933, "lo2": -114.95102361305473, "refTime": "2026041603", "parameterCategory": 1, "parameterNumber": 2}, "data": [10.73, 11.02, 11.02, 11.1, 11.4, 11.1, 10.77, 10.76, 10.75, 10.13, 9.8, 8.85, 10.36, 11.12, 11.21, 11.28, 11.62, 11.18, 11.62, 12.52, 12.3, 12.3, 11.28, 11.18, 11.18, 11.03, 0.0, -5.6, -5.4, -2.93, -3.04, 0.0, 0.0, 2.71, 4.6, 5.9, 6.64, 7.51, 7.51, 7.27, 6.14, 7.9, 9.08, 9.82, 11.16, 12.51, 14.11, 12.96, 13.41, 9.8, 10.12, 11.8, 12.65, 13.42, 13.74, 13.99, 14.38, 14.73, 14.31, 13.89, 14.1, 14.1, 13.99, 13.57, 13.44, 13.94, 13.99, 13.99, 14.53, 15.27, 15.27, 14.84, 15.25, 15.46, 15.43, 15.46, 14.71, 14.28, 14.75, 14.75, 14.3, 12.72, 12.3, 12.14, 11.71, 11.03, -0.0, -2.19, -1.58, -0.0, -0.0, 2.63, 5.15, 7.59, 8.85, 10.12, 9.17, 9.17, 10.73, 11.02, 10.74, 10.74, 11.1, 11.1, 11.08, 10.47, 10.45, 10.43, 9.5, 9.8, 9.76, 10.41, 12.04, 11.71, 10.73, 12.07, 12.07, 11.62, 13.41, 12.96, 12.96, 12.96, 10.73, 10.84, 3.68, -5.4, -6.21, -5.6, -5.31, -2.72, 0.0, 0.0, 3.6, 5.36, 5.69, 7.15, 7.51, 7.27, 8.85, 9.48, 9.17, 9.26, 10.86, 12.89, 13.19, 13.86, 8.66, 9.44, 11.2, 12.89, 13.29, 13.34, 14.03, 14.44, 14.6, 14.61, 14.61, 14.18, 14.37, 14.37, 13.88, 13.44, 13.44, 13.5, 13.94, 13.94, 14.42, 15.27, 15.81, 15.27, 15.61, 15.02, 14.99, 14.55, 14.71, 14.28, 14.75, 14.75, 14.3, 12.72, 12.3, 12.14, 11.71, 11.03, -0.0, -2.19, -1.58, -0.0, -0.0, 2.63, 5.15, 7.59, 8.85, 10.12, 9.17, 9.17, 10.74, 10.74, 10.74, 10.74, 10.74, 11.4, 11.1, 10.77, 10.45, 10.43, 9.5, 7.61, 9.17, 9.82, 10.4, 11.03, 11.62, 11.62, 11.71, 12.3, 10.4, 11.2, 11.2, 12.72, 13.15, 9.6, 3.39, -2.6, -6.71, -5.98, -7.59, -5.64, -2.81, 0.0, 3.8, 6.32, 6.01, 6.98, 7.68, 8.93, 7.95, 8.12, 9.17, 9.89, 11.34, 12.56, 12.96, 8.38, 10.43, 11.68, 12.37, 13.59, 13.89, 14.11, 13.99, 14.75, 14.81, 14.86, 14.42, 14.42, 14.37, 13.88, 13.44, 13.44, 13.44, 13.88, 13.99, 14.84, 14.95, 15.27, 15.38, 15.38, 15.25, 14.75, 14.51, 14.55, 15.15, 15.16, 14.3, 14.75, 14.3, 12.72, 12.3, 11.71, 11.28, 3.68, -1.58, -3.07, -1.84, -0.0, 2.81, 2.89, 6.6, 8.85, 8.58, 8.05, 7.78, 6.44, 10.36, 10.74, 10.74, 10.74, 10.74, 10.76, 11.1, 11.08, 10.76, 10.13, 9.5, 7.96, 8.32, 8.93, 10.4, 10.79, 11.4, 11.71, 11.03, 11.45, 10.6, 10.0, 7.9, 7.9, 10.04, 9.17, 0.0, -2.39, -4.4, -5.75, -4.75, -5.46, -4.95, 0.0, 3.04, 7.59, 6.17, 8.38, 7.27, 7.65, 8.37, 9.17, 10.12, 10.94, 12.14, 12.83, 11.53, 10.99, 12.0, 12.81, 13.19, 14.42, 14.13, 14.13, 14.51, 14.55, 14.58, 14.58, 14.58, 14.14, 14.31, 13.88, 13.88, 13.44, 13.15, 13.99, 14.44, 14.21, 16.02, 15.74, 14.79, 14.6, 14.6, 14.18, 14.11, 13.86, 14.75, 15.2, 15.2, 13.86, 12.72, 11.99, 12.58, 11.28, 3.53, -2.28, -3.32, -3.68, -1.84, -0.0, 3.69, 3.58, 6.2, 7.44, 3.14, 2.63, 4.1, 3.96, 10.36, 10.36, 10.36, 10.47, 10.76, 10.76, 10.76, 11.1, 10.47, 10.13, 9.19, 7.6, 7.54, 8.22, 9.58, 9.97, 10.79, 11.28, 10.4, 8.53, 9.17, 8.85, 8.22, 10.4, 8.93, 3.82, 0.0, -3.82, -3.53, -2.02, -3.39, -3.92, -3.68, -1.25, 2.02, 6.4, 6.8, 8.87, 7.26, 7.41, 9.17, 11.26, 13.23, 13.86, 13.32, 12.74, 12.42, 11.9, 12.81, 13.2, 13.81, 13.96, 13.96, 14.47, 14.47, 14.69, 14.55, 14.55, 14.37, 13.94, 13.88, 13.44, 13.44, 13.99, 13.99, 15.54, 15.46, 14.18, 14.82, 16.74, 16.75, 15.53, 16.39, 16.19, 15.25, 12.96, 13.8, 14.11, 13.86, 13.31, 12.3, 12.96, 12.07, 7.9, -5.0, -7.26, -6.21, -4.32, -3.25, -0.0, -0.0, -0.0, 3.04, -0.0, -0.0, -0.0, 3.56, 3.96, 10.1, 10.1, 10.1, 10.1, 10.76, 10.76, 10.76, 10.76, 10.47, 9.84, 8.87, 6.97, 7.41, 8.93, 8.73, 9.58, 9.58, 9.97, 8.73, 6.45, 4.58, 1.5, 0.0, 0.0, 3.96, 3.82, 0.0, -2.37, -2.54, -2.93, -1.93, -1.69, -1.28, 0.0, 1.98, 3.65, 5.45, 8.24, 7.59, 6.98, 8.85, 13.57, 13.86, 14.3, 13.88, 12.81, 12.0, 11.64, 11.64, 12.79, 12.98, 13.53, 13.53, 13.96, 14.47, 14.51, 14.23, 14.31, 14.1, 13.75, 13.5, 13.07, 14.31, 14.75, 15.12, 14.57, 13.76, 13.06, 13.26, 16.74, 19.02, 17.99, 16.17, 17.2, 17.49, 16.37, 13.36, 12.58, 12.96, 12.79, 12.07, 10.4, 11.18, -3.68, -9.3, -10.79, -10.8, -11.16, -10.43, -10.12, -3.14, -0.0, -0.0, -2.13, -1.83, -0.0, 3.56, 3.44, 10.1, 10.1, 10.1, 10.1, 10.76, 10.76, 10.76, 10.47, 10.47, 9.84, 8.24, 6.61, 7.65, 8.59, 10.04, 9.2, 9.3, 8.93, 8.22, 7.27, 5.92, 3.68, 0.0, 0.0, 0.0, 0.0, 0.0, -3.32, -3.96, -3.39, -2.71, 0.0, 0.0, 1.33, 2.42, 3.14, 3.44, 9.48, 8.22, 7.27, 5.6, 11.6, 14.3, 14.75, 13.99, 11.68, 12.22, 12.16, 11.09, 12.74, 13.15, 12.98, 13.57, 13.99, 13.7, 13.37, 13.88, 13.88, 13.94, 13.55, 13.28, 13.25, 14.99, 15.41, 13.23, 11.7, 13.26, 13.18, 13.74, 16.51, 19.65, 19.17, 16.61, 16.22, 16.73, 16.86, 15.15, 13.41, 13.41, 13.41, 11.62, 8.22, 12.07, -6.7, -10.8, -12.52, -13.86, -14.3, -14.3, -11.16, -6.9, -4.24, -2.2, -1.48, -0.0, 1.61, 4.39, 4.75, 9.45, 10.1, 10.1, 10.1, 10.39, 10.76, 10.47, 10.76, 10.13, 9.49, 7.59, 5.92, 6.97, 8.93, 9.82, 8.73, 9.46, 9.66, 8.82, 8.22, 8.73, 10.0, 8.53, 4.24, 0.0, 0.0, -2.02, -4.8, -5.98, -4.15, -1.84, 0.0, 0.0, 1.76, 3.07, 1.84, 0.0, 5.0, 8.85, 8.22, 11.18, -0.0, 8.85, 9.8, 10.43, 11.38, 12.02, 12.87, 12.9, 12.42, 11.72, 12.56, 13.15, 13.27, 13.37, 13.44, 13.67, 13.81, 13.38, 12.96, 12.07, 13.41, 14.84, 12.73, 9.66, 11.29, 13.74, 14.44, 14.51, 15.59, 17.88, 18.33, 16.09, 15.61, 15.2, 14.75, 14.27, 13.15, 12.79, 14.3, 13.72, 11.87, 12.07, 3.96, -8.85, -13.41, -12.45, -13.15, -12.96, -9.17, -6.67, -5.8, -4.71, -2.72, -0.0, 1.38, 4.75, 4.58, 9.45, 9.45, 9.83, 10.11, 10.11, 10.47, 10.47, 10.13, 9.84, 8.85, 7.32, 5.64, 6.87, 6.44, 7.41, 7.95, 8.53, 8.53, 8.22, 6.71, 9.3, 11.4, 11.03, 11.3, 8.53, 5.6, 0.0, -8.8, -5.7, -3.39, 0.0, 0.0, 0.0, 0.0, 0.0, 0.0, 0.0, 0.0, 8.22, 11.18, 11.2, 8.85, 8.85, 9.48, 13.57, 12.39, 15.61, 15.77, 14.39, 13.89, 13.81, 11.6, 12.25, 13.27, 13.59, 13.8, 13.86, 12.96, 12.52, 12.04, 12.47, 15.2, 13.59, 9.09, 9.66, 13.26, 15.59, 15.61, 14.75, 14.68, 15.78, 16.27, 16.31, 15.49, 14.6, 14.26, 13.86, 12.96, 13.41, 15.2, 14.3, 13.41, 13.75, 12.39, 5.6, -12.52, -11.6, -12.96, -10.73, -8.3, -7.54, -5.8, -4.81, -4.24, -0.0, 1.55, 4.58, 4.75, 9.45, 9.45, 9.45, 10.11, 10.11, 10.11, 10.47, 10.13, 9.48, 8.85, 7.83, 6.9, 6.27, 5.8, 6.15, 6.31, 6.15, 6.15, 4.9, 3.53, 3.39, 4.54, 6.97, 7.56, 7.9, 5.75, 0.0, -9.83, 0.0, 0.0, 0.0, 0.0, 0.0, 0.0, 0.0, 0.0, 0.0, 8.94, 11.62, 12.52, 11.84, 11.2, 10.04, 11.03, 11.28, 12.96, 13.41, 14.3, 15.04, 13.99, 12.51, 12.51, 13.07, 13.15, 13.53, 14.22, 13.86, 12.07, 11.13, 12.31, 14.75, 15.36, 8.97, 8.53, 10.6, 13.76, 15.33, 14.39, 13.72, 14.11, 14.18, 14.84, 15.83, 15.87, 15.46, 13.7, 13.19, 11.4, 11.88, 14.3, 14.42, 13.46, 14.46, 13.02, 11.09, 11.99, 13.86, -0.0, -2.63, -5.8, -6.3, -6.08, -5.6, -4.55, -0.0, 1.77, 3.44, 3.44, 9.19, 9.45, 9.73, 10.11, 10.11, 10.11, 10.11, 10.13, 9.21, 8.2, 7.55, 7.93, 8.2, 7.55, 6.65, 6.1, 6.73, 5.77, 4.62, 4.07, 4.04, 4.16, 4.13, 4.93, 5.8, 2.1, -4.6, -9.83, 0.0, 5.46, 3.25, 0.0, -9.83, -9.83, 0.0, 0.0, 8.22, 11.62, 11.03, 12.27, 12.04, 11.2, 11.03, 11.71, 11.62, 11.62, 12.07, 12.35, 12.04, 10.47, 10.43, 11.38, 12.22, 12.22, 12.36, 11.7, 12.71, 13.15, 9.83, 13.41, 12.33, 7.04, 6.72, 7.2, 7.71, 9.01, 9.69, 9.92, 9.49, 12.14, 13.86, 14.75, 15.99, 15.83, 14.75, 13.07, 10.73, 10.38, 12.79, 15.2, 10.75, 11.06, 11.96, 13.74, 12.57, 12.81, 14.11, 13.03, 7.1, -0.0, -4.39, -4.93, -4.93, -4.39, -1.71, -0.0, 1.83, 3.56, 9.19, 9.47, 9.73, 10.11, 10.11, 10.11, 10.11, 10.13, 9.21, 8.2, 8.2, 8.18, 8.57, 8.58, 8.59, 7.96, 6.87, 6.53, 6.43, 7.49, 8.72, 9.44, 9.06, 9.09, 8.38, 6.94, 0.0, -8.49, -10.73, 0.0, 0.0, 10.73, -10.73, 10.28, 10.28, 10.73, 10.73, 9.67, 9.67, 10.8, 10.01, 9.66, 10.79, 11.4, 10.73, 10.28, 11.45, 8.85, 7.19, 6.2, 6.4, 9.17, 8.4, 6.36, 6.08, 5.52, 9.0, 10.91, 8.53, -0.0, -0.0, 4.45, 6.26, 4.73, 3.16, 3.34, 5.12, 6.26, 8.17, 9.87, 10.43, 12.39, 14.64, 15.08, 12.3, 10.08, 10.4, 13.19, 15.65, 11.06, 11.38, 11.38, 14.13, 14.46, 14.42, 14.77, 15.31, 13.89, 11.33, 4.38, -1.77, -4.58, -4.08, -3.19, -1.77, -0.0, -0.0, 1.83, 9.19, 9.47, 9.47, 9.73, 10.11, 10.11, 9.84, 9.48, 8.83, 8.85, 8.2, 8.18, 8.83, 9.49, 9.82, 9.17, 9.53, 10.12, 10.59, 11.69, 12.99, 14.31, 14.97, 14.73, 14.3, 13.86, 13.41, 12.96, -12.07, -9.83, -11.18, -11.18, 10.73, 10.28, 9.2, 9.2, 7.27, 6.2, 6.2, 9.3, 10.4, 10.4, 10.38, 9.54, 10.28, 10.73, 8.22, 3.82, 4.1, 7.44, 5.6, 6.0, 3.47, -0.0, -0.0, 4.45, 9.0, 13.68, 15.27, -0.0, -1.46, 2.34, 4.79, 3.37, 1.14, 1.25, 1.39, 3.54, 8.4, 11.99, 13.96, 14.86, 12.79, 11.62, 9.21, 10.4, 14.31, 14.39, 9.66, 12.56, 12.87, 14.36, 14.71, 15.69, 13.74, 15.62, 16.99, 15.33, 11.38, 6.4, 1.96, -1.44, -2.71, -3.68, -2.06, -0.0, -0.0, -0.0, 8.79, 9.47, 9.47, 9.73, 10.11, 10.11, 10.13, 9.48, 8.83, 8.85, 8.46, 8.85, 8.57, 9.49, 9.84, 9.5, 9.8, 10.63, 11.16, 12.2, 13.28, 13.49, 14.27, 14.59, 14.23, 14.29, 13.84, 13.82, 12.72, -12.52, -10.73, -10.73, -0.0, 6.95, 8.8, 6.95, 5.46, 5.7, 7.27, 8.93, 10.41, 10.28, 10.73, 10.28, 9.83, 9.2, -0.0, 3.53, 5.2, 5.6, 8.85, 12.07, 12.07, 12.07, 12.52, 12.52, 15.65, 19.22, 21.46, 6.2, -2.72, -0.0, 3.59, 1.88, 1.37, -0.0, -0.0, -0.0, 5.89, 13.68, 15.85, 15.8, 12.96, 10.28, 10.84, 14.75, 9.17, 10.89, 12.9, 14.13, 15.19, 15.84, 15.57, 15.2, 14.53, 15.54, 16.51, 15.72, 12.33, 8.77, 5.81, 1.58, -0.0, -0.0, -0.0, -0.0, -0.0, -0.0, 8.79, 9.19, 9.47, 9.73, 10.11, 10.11, 10.13, 9.48, 9.21, 8.85, 8.85, 8.85, 8.85, 9.22, 9.21, 9.5, 9.48, 10.47, 11.18, 11.53, 11.5, 12.54, 13.42, 13.7, 13.92, 13.59, 13.7, 13.77, 13.01, 12.45, 12.52, 10.28, 7.9, 7.27, 9.2, 3.25, 4.8, 4.4, 7.9, 9.33, 10.28, 10.73, 9.83, 9.83, 9.83, 3.11, -0.0, -0.0, 4.8, 7.9, 11.62, 11.18, 10.73, 9.39, 9.83, 10.73, 8.22, 10.82, 17.97, 13.95, -0.0, -0.0, 2.72, 5.31, 5.48, 3.69, -0.0, 5.37, 8.93, 12.07, 13.16, 12.87, 9.2, -0.0, 9.48, 9.92, 11.16, 13.46, 14.13, 14.91, 15.59, 15.96, 15.58, 13.41, 12.71, 15.2, 14.42, 14.07, 11.38, 9.17, 8.25, 6.0, 1.64, -0.0, -0.0, -0.0, -0.0, -0.0, 8.79, 9.19, 9.47, 9.73, 9.73, 10.11, 9.84, 9.48, 9.21, 8.85, 8.85, 8.85, 8.85, 8.86, 9.21, 9.21, 9.48, 9.78, 11.01, 11.32, 11.94, 11.85, 12.77, 13.84, 14.31, 14.47, 13.7, 13.79, 13.33, 13.28, 13.34, 12.07, 10.28, 10.73, 9.75, 4.96, 3.82, 5.29, 7.59, 9.97, 9.39, 9.39, 10.28, 9.83, 8.18, 2.97, -0.0, -0.0, 4.6, 7.27, 10.0, 11.62, 11.03, 10.41, 9.11, 9.33, 10.28, 10.79, 14.75, 13.02, 7.02, 5.98, 6.97, 8.53, 11.45, 12.3, 12.96, 13.59, 8.93, 8.8, 6.79, -16.79, -18.78, -13.28, 8.43, 11.45, 12.77, 13.96, 14.82, 14.82, 15.25, 15.46, 15.52, 14.55, 12.07, 11.18, 13.15, 10.12, 7.54, 7.34, 8.68, 4.55, 1.43, 1.48, 2.72, 1.71, 1.77, 1.77, 8.79, 8.79, 9.47, 9.47, 9.73, 9.84, 9.84, 9.48, 9.21, 9.49, 8.85, 8.85, 8.86, 8.86, 8.87, 8.59, 9.48, 9.17, 10.35, 10.96, 11.44, 11.72, 12.36, 13.21, 14.03, 14.23, 14.69, 14.74, 14.75, 14.3, 13.38, 12.93, 11.18, 11.18, 8.48, 6.64, 5.46, 8.93, 9.75, 9.83, 9.83, 8.94, 10.28, 8.67, 8.18, 5.46, 3.25, 3.25, 5.7, 8.55, 8.55, 9.6, 10.0, 9.6, 9.96, 9.55, 10.08, 10.73, 10.8, 10.55, 8.85, 7.9, 7.59, 9.6, 10.52, 10.28, 11.62, 11.62, 9.8, 12.33, 21.9, -15.25, -16.96, 21.01, 12.64, 10.91, 11.31, 13.91, 15.02, 14.42, 13.23, 14.1, 14.57, 13.29, 11.9, 6.97, 8.53, 6.67, 6.65, 7.34, 9.06, 7.11, 3.04, 3.14, 3.14, 2.93, 3.44, 3.44, 8.79, 9.07, 9.47, 9.47, 9.47, 9.47, 9.47, 9.48, 9.48, 9.49, 8.85, 8.58, 8.86, 8.87, 8.59, 8.58, 9.19, 9.77, 10.01, 10.79, 11.47, 12.12, 12.36, 12.97, 13.26, 14.29, 15.18, 15.18, 15.18, 15.18, 14.67, 13.31, 12.52, 11.18, 10.65, 10.28, 9.83, 10.28, 9.83, 9.83, 9.83, 9.83, 9.83, 9.75, 8.55, 5.7, 5.95, 5.7, 8.55, 9.2, 9.2, 9.2, 9.55, 9.55, 8.82, 8.82, 8.82, 8.38, 9.3, 8.59, 9.27, 9.67, 9.2, 9.96, 10.52, 9.83, 9.39, 10.28, 8.53, 11.06, 14.22, 16.37, 19.67, 20.63, 15.14, 10.87, 12.64, 15.44, 16.37, 15.44, 14.71, 15.7, 16.28, 11.16, 8.85, 7.28, 8.1, 7.19, 6.0, 7.36, 7.58, 6.3, 5.2, 4.75, 5.11, 5.11, 5.6, 5.6, 9.07, 9.07, 9.47, 9.47, 9.47, 9.47, 9.47, 9.75, 9.48, 9.49, 9.22, 8.86, 8.59, 8.87, 8.23, 9.24, 8.58, 9.48, 9.42, 10.68, 11.99, 13.32, 12.52, 12.18, 11.96, 13.27, 12.62, 13.55, 13.11, 13.35, 13.44, 12.92, 12.52, 12.07, 11.18, 10.73, 9.45, 9.1, 10.27, 10.41, 9.64, 10.08, 11.18, 10.84, 9.67, 7.59, 7.59, 8.55, 8.55, 9.2, 9.2, 9.55, 9.55, 8.23, 7.27, 7.27, 8.03, 8.73, 8.53, 9.67, 9.67, 10.4, 10.6, 9.7, 9.83, 9.39, 9.39, 10.28, 10.18, 13.28, 17.88, 19.91, 22.69, 23.78, 16.21, 15.34, 16.09, 16.54, 16.95, 17.1, 16.76, 17.37, 16.01, 11.72, 10.3, 9.48, 10.47, 8.1, 6.9, 4.98, 4.52, 7.11, 7.02, 5.2, 6.2, 6.4, 7.69, 7.69, 8.81, 9.07, 9.07, 9.47, 9.47, 9.2, 9.2, 9.48, 9.84, 9.49, 9.22, 8.86, 8.87, 8.51, 8.51, 8.54, 8.24, 7.61, 8.42, 9.69, 12.03, 13.2, 12.74, 11.39, 10.37, 10.79, 11.2, 11.99, 12.54, 11.88, 12.14, 12.52, 12.07, 11.71, 11.28, 10.73, 10.18, 9.6, 9.96, 9.66, 10.35, 10.68, 11.18, 10.96, 10.0, 10.4, 9.2, 9.2, 9.2, 8.8, 8.8, 9.2, 8.58, 6.71, 5.9, 6.14, 7.9, 7.59, 8.24, 10.4, 10.6, 9.96, 10.52, 10.58, 10.28, 10.28, 9.2, 7.9, 10.35, 12.56, 15.27, 18.55, 23.21, 25.77, 20.92, 16.41, 14.13, 13.01, 15.9, 16.79, 15.65, 16.54, 15.2, 12.72, 11.88, 9.48, 8.59, 6.43, 6.67, 4.65, 4.98, 6.9, 7.19, 6.67, 6.2, 7.82, 9.22, 9.22, 8.81, 8.81, 8.81, 9.2, 9.2, 9.48, 9.48, 9.48, 9.48, 9.84, 9.22, 8.86, 8.87, 8.51, 8.87, 8.87, 8.54, 7.89, 7.24, 9.06, 10.86, 11.93, 12.28, 11.68, 11.64, 11.36, 11.63, 11.3, 10.65, 10.85, 11.35, 11.62, 11.62, 11.46, 11.46, 10.96, 11.18, 10.18, 10.05, 10.7, 10.78, 11.14, 11.18, 11.88, 11.03, 11.21, 8.8, 9.2, 9.97, 9.97, 9.54, 9.2, 6.44, 4.15, 5.52, 5.29, 7.15, 6.71, 9.08, 10.38, 10.38, 10.38, 10.52, 11.18, 9.97, 7.59, -0.0, 1.98, 4.55, 8.31, 10.47, 14.91, 21.66, 25.0, 19.57, 16.25, 11.71, 11.05, 11.18, 12.29, 15.18, 15.59, 14.66, 11.64, 10.65, 8.38, 5.28, 4.24, 4.98, 5.4, 4.65, 6.9, 8.94, 6.9, 7.13, 7.59, 9.22, 9.22, 8.81, 8.81, 8.81, 8.81, 9.09, 9.09, 8.83, 9.48, 9.48, 9.49, 9.22, 9.21, 8.87, 8.87, 9.17, 9.17, 8.83, 8.83, 9.17, 10.11, 11.03, 10.73, 10.7, 10.65, 11.29, 11.81, 12.38, 11.6, 11.3, 11.8, 12.02, 11.62, 11.62, 11.62, 11.57, 11.11, 11.62, 11.62, 11.06, 10.84, 10.7, 10.96, 11.18, 12.07, 10.91, 10.05, 9.6, 9.54, 9.97, 9.97, 8.55, 7.59, 4.8, 4.15, 3.98, 5.75, 5.77, 6.08, 7.44, 8.58, 9.75, 10.18, 10.84, 10.84, 9.3, 2.19, -0.0, -0.0, 1.83, 2.43, 6.16, 13.09, 19.99, 23.99, 7.35, 8.85, 10.61, 10.2, 8.68, 8.93, 11.69, 15.36, 16.09, 13.2, 9.16, 5.28, 3.25, 3.47, 7.16, 7.02, 8.53, 8.05, 8.58, 7.36, 7.36, 7.36, 10.43, 10.43, 8.81, 8.81, 8.81, 9.09, 8.83, 8.83, 8.83, 8.83, 9.21, 9.49, 9.22, 9.21, 9.16, 8.87, 9.17, 9.17, 9.48, 9.48, 9.46, 10.75, 11.33, 10.59, 9.94, 10.3, 10.87, 11.72, 12.39, 12.77, 12.3, 12.18, 11.96, 11.59, 11.59, 11.62, 11.62, 11.62, 11.62, 11.62, 11.62, 11.51, 11.28, 11.28, 11.55, 11.62, 11.62, 10.75, 10.41, 9.11, 8.91, 9.75, 8.55, 4.8, 4.8, 5.0, 3.98, 3.98, 3.53, 5.8, 8.3, 6.11, 6.64, 9.2, 10.4, 8.22, 2.71, 1.84, 1.64, -0.0, -0.0, -0.0, -0.0, 12.64, 18.65, 13.86, 2.54, 4.2, 6.63, 8.16, 7.99, 7.4, 6.98, 10.02, 15.65, 13.42, 7.59, 4.38, 4.38, 6.4, 8.43, 9.89, 8.1, 9.48, 8.58, 6.4, 7.36, 8.94, 11.17, 11.17, 8.83, 8.83, 8.83, 8.83, 8.83, 8.83, 8.83, 8.85, 8.85, 9.22, 9.5, 9.21, 9.5, 9.16, 9.17, 9.17, 9.78, 9.78, 10.12, 10.42, 10.99, 10.87, 10.41, 10.51, 11.06, 11.44, 11.87, 12.52, 12.58, 12.49, 12.18, 11.89, 11.53, 11.15, 11.15, 11.18, 11.18, 11.18, 11.62, 11.53, 11.53, 11.28, 11.28, 11.53, 11.62, 11.06, 12.14, 10.84, 10.41, 9.3, 8.22, 7.9, 5.95, 4.8, 2.49, 2.49, 2.49, 5.4, 7.78, 7.44, 6.32, 7.81, 7.9, 3.68, 2.19, 1.71, 1.71, 2.06, 1.84, -0.0, 11.18, 14.54, 25.15, 27.32, 15.36, 11.99, 11.99, 12.58, 8.18, 6.29, 4.74, 7.93, 14.47, 12.79, 2.89, 2.43, 5.48, 7.59, 7.82, 9.35, 8.87, 6.9, 7.13, 6.2, 8.58, 10.12, 11.88, 11.88, 8.83, 8.83, 8.83, 8.83, 8.83, 8.83, 8.85, 8.85, 8.85, 8.85, 9.5, 9.21, 9.5, 9.5, 9.46, 9.46, 9.78, 9.48, 9.8, 10.39, 10.65, 10.94, 10.87, 10.79, 11.06, 11.33, 11.72, 12.25, 12.5, 12.72, 12.44, 12.62, 12.33, 11.53, 11.09, 10.7, 11.15, 11.06, 11.02, 11.44, 11.4, 11.35, 10.84, 11.09, 11.18, 10.73, 11.62, 10.65, 9.6, 9.33, 10.05, 11.2, 8.93, 5.95, 3.25, 2.49, 3.25, 3.11, 3.68, 8.85, 9.3, 8.63, 6.95, -0.0, 2.28, 1.98, 1.71, 1.5, 1.71, 5.2, 11.99, 13.58, 21.74, 27.01, 25.73, 17.63, 14.73, 14.24, 14.11, 6.0, 6.2, 10.52, 12.72, 12.72, 3.58, 2.89, 5.48, 5.48, 4.81, 5.49, 8.25, 7.82, 7.93, 8.85, 9.48, 11.09, 12.87, 12.87, 8.83, 8.83, 8.83, 8.83, 8.83, 8.83, 8.85, 8.85, 8.58, 8.86, 8.86, 9.21, 9.5, 9.5, 9.8, 9.17, 9.48, 9.8, 9.8, 10.39, 10.39, 10.94, 11.23, 11.16, 11.44, 11.33, 11.6, 11.85, 11.99, 12.22, 12.22, 12.37, 12.14, 11.86, 11.42, 11.08, 10.63, 10.63, 10.93, 10.89, 10.84, 11.21, 10.96, 11.12, 10.73, 10.73, 11.55, 10.22, 9.77, 9.77, 10.91, 10.75, 12.14, 8.53, 3.53, 3.39, 5.7, 4.4, 4.6, 5.2, 11.71, 10.8, 7.81, 4.4, 2.19, 1.98, 2.06, 2.06, 4.1, 6.94, 12.07, 14.03, 16.99, 23.93, 24.98, 21.73, 17.9, 16.38, 11.62, 8.22, 6.65, 9.8, 13.03, 13.86, 3.47, 3.07, 5.64, 4.66, 4.66, 5.99, 9.87, 10.15, 10.75, 11.06, 11.88, 13.28, 13.59, 13.59, 8.18, 8.18, 8.57, 8.85, 8.85, 8.85, 8.85, 8.85, 8.86, 8.86, 8.86, 8.86, 9.5, 9.5, 9.8, 9.5, 9.48, 9.8, 10.11, 10.39, 10.39, 10.7, 10.87, 10.87, 11.16, 11.06, 11.6, 11.85, 11.99, 12.22, 12.14, 11.95, 12.09, 11.66, 11.84, 11.4, 11.4, 10.96, 10.52, 10.05, 10.93, 11.36, 11.49, 10.69, 10.28, 11.18, 11.18, 10.28, 9.83, 9.83, 10.66, 11.09, 10.14, 9.2, 5.0, 3.39, 5.95, 4.6, -0.0, -0.0, 10.8, 10.75, 10.38, 7.59, 4.65, 2.28, 2.37, 7.19, 9.17, 12.58, 12.96, 13.23, 14.64, 16.99, 17.66, 21.81, 21.24, 19.17, 9.76, 8.8, 4.32, 6.67, 8.58, 12.96, 12.39, 12.27, 7.0, 5.81, 6.8, 9.22, 10.75, 13.46, 13.95, 13.76, 13.59, 13.28, 14.03, 14.03, 8.46, 8.46, 8.85, 8.85, 8.85, 8.85, 8.85, 8.58, 8.86, 8.59, 8.86, 8.86, 9.16, 9.5, 9.5, 9.5, 9.8, 9.48, 9.78, 9.78, 10.35, 10.35, 10.87, 10.87, 11.16, 11.44, 11.33, 11.6, 11.33, 11.57, 11.8, 11.52, 11.52, 11.66, 11.66, 11.23, 11.23, 10.8, 10.8, 10.49, 10.93, 11.36, 11.05, 10.25, 9.83, 10.73, 10.28, 10.28, 9.83, 10.28, 11.18, 10.73, 10.73, 10.28, 7.59, 5.2, 7.9, 4.8, -0.0, -0.0, 7.9, 10.96, 11.02, 8.53, 5.2, 4.65, 7.44, 11.2, 12.07, 12.96, 14.3, 14.3, 13.01, 13.15, 15.2, 19.67, 23.69, 19.22, 13.75, 10.28, 10.0, 9.3, 12.72, 12.52, 12.52, 13.86, 10.43, 9.39, 11.06, 12.27, 13.99, 15.04, 14.79, 15.19, 14.79, 14.84, 14.99, 14.99, 8.46, 8.46, 8.85, 8.85, 8.85, 8.58, 8.58, 8.86, 8.86, 8.59, 8.59, 9.16, 9.16, 9.5, 9.5, 9.5, 9.48, 9.48, 9.78, 9.78, 10.35, 10.01, 10.01, 10.65, 11.16, 10.59, 10.88, 11.17, 11.06, 11.33, 11.16, 11.38, 11.3, 11.52, 11.09, 11.09, 11.03, 10.8, 10.8, 10.37, 10.75, 10.89, 10.84, 11.98, 12.07, 10.28, 9.39, 9.68, 10.12, 10.23, 11.11, 10.65, 10.14, 10.28, 8.93, 5.95, 5.4, 5.2, 4.8, 5.0, 10.0, 11.18, 11.84, 8.85, 7.24, 7.78, 8.31, 10.41, 11.62, 9.67, 13.59, 14.75, 13.77, 11.99, 10.12, 12.96, 17.94, 18.85, 18.78, 16.71, 12.07, 10.28, 12.52, 12.07, 12.9, 13.09, 11.99, 13.7, 14.99, 14.99, 14.55, 15.05, 15.27, 15.61, 16.33, 16.12, 16.31, 16.31, 8.2, 8.2, 8.2, 8.58, 8.58, 8.86, 8.86, 8.86, 8.59, 8.59, 8.59, 8.51, 9.16, 9.16, 9.5, 9.5, 9.19, 9.48, 9.78, 9.46, 10.01, 10.01, 10.3, 10.3, 10.59, 10.59, 10.88, 11.17, 11.06, 11.33, 11.33, 11.16, 11.16, 10.96, 10.88, 10.88, 11.09, 10.67, 10.6, 10.37, 10.32, 10.25, 10.89, 10.35, 10.96, 11.62, 11.18, 10.12, 9.75, 10.46, 10.27, 9.2, 8.82, 10.28, 8.93, 7.59, 6.95, 7.9, 8.22, 7.9, 9.6, 11.18, 11.71, 9.67, 10.04, 10.41, 8.05, 6.4, 6.2, 9.83, 7.59, 13.15, 16.09, 16.99, 14.79, 14.77, 15.74, 15.31, 18.08, 20.12, 20.96, 12.52, 11.62, 12.49, 11.23, 13.2, 13.02, 14.07, 14.75, 14.75, 14.6, 15.53, 15.34, 15.04, 15.87, 17.2, 17.1, 17.1, 8.2, 8.2, 8.2, 8.86, 8.86, 8.86, 8.86, 8.86, 8.59, 8.59, 8.51, 8.51, 8.51, 8.87, 9.17, 9.19, 9.19, 9.48, 9.48, 9.72, 10.01, 10.01, 10.3, 10.06, 10.37, 10.37, 10.68, 10.61, 10.91, 11.06, 11.33, 11.33, 10.92, 11.16, 10.75, 10.54, 10.46, 10.46, 10.18, 10.18, 10.1, 10.32, 10.25, 10.18, 10.08, 11.09, 11.71, 10.28, 9.75, 10.46, 9.86, 9.75, 10.14, 10.73, 9.6, 8.58, 8.23, 9.67, 8.93, 10.0, 10.0, 11.03, 10.04, 11.28, 12.07, 11.62, 10.4, 5.8, 10.04, 9.83, 8.06, 11.18, 14.53, 21.63, 20.97, 16.96, 13.91, 12.13, 14.79, 19.01, 21.8, 19.22, 12.96, 13.18, 12.87, 13.23, 13.33, 13.82, 13.88, 14.66, 14.64, 14.66, 15.12, 15.43, 15.49, 15.87, 16.66, 16.66, 8.2, 8.2, 8.2, 8.49, 8.86, 8.86, 8.59, 8.59, 8.59, 8.87, 8.23, 8.23, 8.51, 8.59, 8.87, 8.87, 9.19, 9.48, 9.77, 10.06, 9.72, 10.01, 10.06, 10.06, 10.37, 10.37, 10.31, 10.04, 10.94, 10.26, 10.91, 11.06, 11.33, 10.92, 10.92, 10.75, 10.33, 10.24, 10.05, 9.96, 9.75, 10.1, 10.01, 9.9, 9.9, 10.0, 10.32, 10.41, 10.52, 10.91, 10.47, 10.22, 10.73, 10.73, 10.14, 9.55, 10.0, 10.0, 8.93, 8.55, 10.8, 10.4, 11.03, 11.18, 11.62, 11.18, 10.28, 11.62, 12.52, 12.07, 10.28, 7.27, 6.2, 18.05, 28.66, 19.67, 12.63, 8.82, 10.94, 16.44, 18.08, 17.88, 15.53, 13.72, 13.99, 14.35, 14.84, 13.92, 13.75, 13.44, 13.8, 14.3, 14.75, 15.2, 14.84, 15.43, 16.09, 16.09, 7.95, 7.95, 8.22, 8.22, 8.59, 8.59, 8.59, 8.59, 8.87, 8.87, 8.23, 8.23, 8.23, 8.23, 8.87, 8.87, 9.19, 9.48, 9.48, 9.48, 9.72, 9.66, 9.42, 9.71, 10.01, 10.01, 10.09, 10.09, 10.04, 10.94, 9.78, 10.35, 10.52, 10.67, 10.67, 10.52, 10.52, 10.24, 10.24, 9.96, 9.55, 9.86, 9.86, 10.01, 10.32, 9.6, 10.01, 9.75, 10.41, 10.35, 10.12, 10.24, 11.18, 10.73, 10.28, 10.58, 10.52, 9.6, 9.2, 8.93, 7.59, 9.6, 11.03, 10.18, 10.6, 11.18, 10.73, 9.75, 9.67, 12.58, 11.91, 9.3, 11.03, 15.61, 27.97, 23.67, 14.71, 10.79, 13.01, 14.23, 16.09, 16.87, 16.31, 16.15, 16.25, 16.27, 15.69, 14.79, 13.82, 13.23, 12.91, 13.41, 13.82, 14.26, 14.3, 14.99, 14.9, 14.9, 7.95, 7.95, 8.22, 8.22, 8.22, 8.59, 8.87, 8.87, 8.87, 8.59, 8.23, 8.23, 8.23, 8.53, 8.58, 8.58, 8.58, 8.87, 9.17, 9.17, 9.46, 9.42, 9.42, 9.71, 10.01, 10.01, 10.09, 10.09, 10.31, 10.04, 9.97, 9.97, 9.97, 10.52, 10.52, 10.13, 10.4, 10.4, 10.0, 9.83, 9.72, 9.45, 9.86, 9.74, 9.74, 9.2, 9.49, 9.49, 10.18, 10.41, 10.41, 11.0, 10.68, 10.28, 10.28, 10.28, 10.28, 9.64, 9.2, 8.93, 8.85, 7.9, 7.9, 9.3, 8.55, 10.18, 10.73, 10.73, 11.62, 12.52, 12.27, 11.2, 12.52, 14.11, 22.34, 25.81, 18.75, 15.25, 13.25, 14.06, 16.07, 16.52, 16.52, 16.97, 16.52, 16.08, 16.02, 15.12, 14.19, 13.37, 12.52, 12.52, 12.39, 13.11, 13.36, 14.18, 13.59, 13.59, 7.83, 7.83, 8.22, 8.22, 8.22, 8.87, 8.87, 8.59, 8.59, 8.59, 8.23, 8.23, 8.53, 8.24, 8.24, 8.58, 8.87, 8.87, 9.17, 9.17, 9.46, 9.13, 9.42, 9.71, 9.71, 10.01, 9.77, 10.09, 10.31, 10.31, 10.24, 9.97, 9.97, 9.97, 10.13, 10.13, 10.13, 10.13, 10.0, 10.0, 9.47, 9.32, 9.2, 9.74, 9.34, 9.34, 8.8, 9.49, 9.49, 10.18, 10.18, 10.78, 10.52, 10.22, 10.65, 10.28, 9.83, 9.83, 9.54, 7.27, 6.95, 8.22, 7.59, 7.9, 9.3, 10.6, 10.18, 10.6, 11.18, 12.07, 12.52, 13.86, 14.3, 15.46, 19.08, 21.42, 20.12, 17.2, 16.03, 17.57, 17.43, 16.9, 15.47, 15.12, 15.62, 14.75, 14.75, 14.75, 13.41, 12.52, 12.47, 12.27, 12.14, 12.04, 12.79, 12.96, 13.56, 13.56, 7.57, 7.57, 7.57, 7.96, 8.23, 8.23, 8.59, 8.59, 8.59, 8.59, 8.53, 8.53, 8.53, 8.24, 8.24, 8.24, 8.87, 8.87, 8.87, 8.85, 9.13, 9.13, 9.42, 9.71, 9.71, 10.01, 10.01, 10.31, 10.31, 10.31, 10.61, 10.24, 9.86, 9.74, 9.58, 9.58, 9.58, 9.58, 9.58, 9.58, 9.47, 9.47, 9.2, 8.93, 8.93, 8.93, 8.93, 9.34, 9.2, 9.9, 9.77, 10.08, 9.85, 10.47, 10.2, 9.74, 9.83, 9.83, 9.54, 8.55, 7.27, 6.32, 9.6, 8.55, 9.75, 10.84, 9.75, 10.73, 11.18, 11.18, 12.96, 12.96, 15.65, 16.99, 19.22, 17.43, 17.28, 18.95, 20.87, 19.09, 19.22, 16.07, 12.68, 12.58, 13.19, 12.91, 12.96, 12.42, 12.44, 12.71, 12.71, 12.3, 12.18, 12.18, 12.14, 12.96, 12.98, 12.98, 7.57, 7.57, 7.57, 7.57, 8.23, 8.23, 8.23, 8.59, 8.59, 8.87, 8.53, 8.53, 8.24, 8.24, 8.24, 8.54, 8.87, 8.56, 8.56, 8.85, 8.85, 8.85, 9.08, 9.08, 9.37, 9.37, 9.66, 9.66, 9.95, 9.95, 9.95, 10.24, 10.24, 9.86, 9.74, 9.58, 9.58, 9.58, 9.58, 9.58, 9.2, 9.47, 8.76, 10.21, 8.4, 8.93, 9.34, 9.05, 9.2, 9.6, 9.77, 9.6, 9.55, 10.18, 9.54, 9.46, 9.7, 9.39, 9.54, 8.8, 8.18, 7.81, 9.2, 9.33, 10.18, 11.18, 9.83, 10.28, 10.73, 10.73, 11.62, 12.96, 15.34, 17.98, 20.65, 17.83, 12.87, 16.66, 22.1, 22.27, 18.78, 15.65, 13.41, 12.07, 11.91, 12.96, 13.41, 12.96, 12.86, 12.88, 12.58, 13.01, 13.01, 13.15, 12.9, 12.96, 11.16, 12.56, 6.92, 6.92, 7.32, 7.85, 8.23, 8.23, 8.23, 8.87, 8.87, 8.58, 8.58, 8.24, 8.24, 8.24, 8.54, 8.87, 8.87, 8.56, 8.56, 8.85, 8.53, 8.82, 8.82, 8.82, 9.37, 9.37, 9.37, 9.66, 9.66, 9.95, 9.95, 9.95, 9.95, 9.86, 9.86, 9.48, 9.58, 9.58, 9.58, 9.02, 9.02, 9.02, 8.76, 10.16, 9.08, 8.93, 9.05, 8.76, 8.88, 9.27, 9.03, 9.2, 9.55, 9.4, 9.21, 8.63, 8.91, 9.39, 9.11, 9.54, 8.8, 7.81, 9.6, 8.4, 9.83, 10.73, 10.73, 10.28, 10.73, 11.18, 11.18, 12.96, 14.75, 16.54, 22.5, 21.76, 13.99, 11.76, 16.78, 18.8, 16.62, 15.2, 15.2, 14.75, 13.86, 13.41, 13.86, 13.86, 13.41, 13.41, 13.41, 13.41, 13.41, 13.41, 13.41, 11.92, 5.28, 11.16, 6.92, 6.92, 7.59, 7.59, 7.59, 7.96, 7.96, 8.24, 8.58, 8.58, 8.58, 8.58, 8.58, 8.54, 8.54, 8.87, 8.56, 8.56, 8.85, 8.53, 8.53, 8.82, 8.82, 8.82, 8.82, 9.37, 9.37, 9.37, 9.66, 9.66, 9.95, 9.95, 9.95, 9.95, 9.86, 9.86, 9.48, 9.3, 9.58, 9.02, 9.02, 8.45, 8.45, 7.95, 9.86, 8.66, 9.32, 8.82, 8.55, 8.67, 8.63, 8.43, 8.21, 8.58, 8.4, 8.15, 8.48, 8.94, 9.11, 9.11, 9.54, 8.4, 6.8, 9.33, 10.28, 10.28, 9.83, 10.28, 10.73, 11.18, 11.18, 11.62, 13.86, 15.65, 17.59, 22.1, 21.25, 15.61, 11.17, 11.39, 12.52, 13.25, 13.41, 13.38, 12.92, 13.8, 14.25, 14.69, 14.23, 13.81, 13.8, 13.79, 13.86, 13.86, 13.01, 6.9, 4.1, 5.28, 7.19, 7.19, 7.19, 7.59, 7.59, 7.96, 8.24, 8.24, 8.24, 8.24, 8.58, 8.87, 8.87, 8.87, 8.87, 8.56, 8.56, 8.56, 8.53, 8.53, 8.53, 8.82, 8.82, 8.82, 8.82, 9.12, 9.37, 9.37, 9.37, 9.66, 9.66, 9.58, 9.58, 9.58, 9.58, 9.58, 9.86, 9.3, 9.3, 9.02, 9.02, 8.45, 8.23, 8.23, 7.87, 9.58, 8.55, 8.32, 7.68, 8.06, 7.69, 7.81, 7.81, 7.58, 7.58, 7.76, 8.06, 8.94, 8.94, 9.39, 9.11, 9.11, 9.6, 8.8, 9.33, 9.75, 9.83, 10.73, 10.28, 11.18, 11.03, 11.62, 12.96, 13.15, 15.65, 17.44, 25.29, 24.76, 13.86, 12.04, 13.19, 14.18, 13.86, 13.38, 13.38, 13.81, 14.25, 14.75, 14.75, 14.3, 14.3, 14.3, 13.86, 13.53, 9.48, 5.11, 7.19, 7.19, 6.94, 6.94, 6.94, 7.19, 7.59, 7.59, 8.24, 8.24, 7.96, 8.24, 8.56, 8.56, 8.56, 8.56, 8.56, 8.56, 8.56, 8.85, 8.53, 8.53, 8.53, 8.82, 8.82, 8.82, 8.82, 9.12, 9.37, 9.37, 9.37, 9.37, 9.66, 9.3, 9.58, 9.58, 9.58, 9.58, 9.58, 9.67, 9.3, 9.3, 9.02, 8.82, 8.45, 8.15, 8.5, 9.02, 8.55, 8.06, 7.41, 7.41, 7.41, 7.15, 7.15, 7.15, 6.91, 7.37, 8.05, 8.49, 8.94, 8.94, 9.39, 8.67, 8.24, 9.83, 9.33, 9.33, 9.97, 10.28, 9.75, 9.3, 8.22, 11.18, 12.96, 10.41, 10.43, 15.61, 21.61, 29.93, 24.85, 17.27, 17.09, 17.25, 17.67, 15.53, 13.31, 13.86, 13.86, 14.3, 14.75, 14.3, 14.3, 14.3, 13.86, 8.05, 6.67, 9.17, 9.17, 9.17, 6.94, 6.94, 6.94, 6.94, 7.33, 7.6, 7.6, 7.6, 7.96, 8.24, 8.24, 8.56, 8.56, 8.56, 8.56, 8.56, 8.85, 8.85, 8.53, 8.53, 8.82, 8.82, 8.82, 8.82, 8.82, 9.12, 9.46, 9.71, 9.37, 9.37, 9.37, 9.66, 9.3, 9.58, 9.58, 9.58, 9.37, 9.67, 9.67, 9.3, 9.4, 9.02, 8.82, 8.82, 8.5, 9.4, 9.45, 8.63, 8.05, 7.44, 7.44, 7.15, 7.15, 7.58, 7.37, 7.81, 8.05, 8.05, 8.49, 8.94, 8.94, 8.94, 8.67, 10.73, 9.33, 9.33, 9.97, 10.18, 7.27, 6.2, 9.3, 10.73, 11.03, 10.37, 8.59, 10.75, 17.13, 23.48, 28.52, 23.84, 20.09, 20.03, 17.41, 17.08, 14.36, 13.72, 14.3, 14.3, 14.22, 14.07, 13.79, 13.86, 12.87, 6.0, 11.6, 11.6, 11.6, 11.6, 6.94, 6.94, 6.94, 6.94, 6.94, 7.6, 7.6, 7.6, 7.6, 8.24, 8.24, 8.24, 8.56, 8.56, 8.56, 8.85, 8.85, 8.53, 8.53, 8.53, 8.82, 8.82, 8.82, 9.15, 9.15, 9.46, 9.46, 9.71, 9.71, 9.37, 9.37, 9.66, 9.3, 9.3, 9.58, 9.37, 9.37, 9.67, 9.67, 9.09, 9.4, 9.02, 8.82, 8.82, 8.82, 9.14, 9.45, 9.2, 8.8, 8.95, 8.4, 8.21, 8.17, 8.17, 8.37, 8.41, 8.49, 8.05, 8.05, 8.49, 8.49, 8.94, 8.94, 8.49, 10.73, 9.33, 9.33, 8.91, 7.27, 8.93, 10.4, 10.28, 10.84, 11.62, 11.16, 11.9, 15.61, 18.33, 22.03, 23.59, 23.8, 23.64, 22.15, 17.09, 15.83, 14.42, 14.42, 14.75, 14.66, 13.09, 14.19, 5.6, 3.14, 10.79, 11.6, 8.85, 8.85, 8.85, 6.94, 6.94, 6.94, 6.94, 7.22, 6.96, 6.96, 7.33, 7.33, 8.24, 8.24, 8.24, 8.56, 8.56, 8.85, 8.85, 8.53, 8.53, 8.53, 8.53, 8.82, 8.82, 8.82, 8.82, 9.15, 9.15, 9.46, 9.46, 9.71, 9.37, 9.37, 9.37, 9.3, 9.3, 9.58, 9.37, 9.37, 9.67, 9.46, 9.46, 9.4, 9.4, 9.4, 8.82, 9.14, 9.14, 9.45, 9.34, 9.2, 9.08, 8.95, 8.82, 8.72, 8.56, 8.77, 8.43, 8.43, 7.97, 8.05, 8.05, 8.49, 8.49, 8.94, 9.39, 8.77, 10.28, 9.33, 8.94, 9.83, 9.97, 10.28, 10.73, 11.28, 12.27, 13.15, 13.67, 15.2, 16.09, 17.67, 17.94, 21.2, 26.08, 25.59, 20.91, 18.34, 15.29, 15.79, 15.74, 14.3, 13.75, 12.72, 3.82, 6.94, 10.41, 6.94, 2.37, 2.37, 2.37, 6.7, 6.7, 6.7, 6.96, 6.96, 6.96, 6.96, 6.96, 7.33, 7.61, 7.95, 7.95, 8.24, 8.53, 8.53, 8.53, 8.53, 8.53, 8.53, 8.53, 8.82, 8.82, 8.82, 8.82, 8.82, 9.15, 9.46, 9.46, 9.71, 9.37, 9.37, 9.37, 9.3, 9.3, 9.08, 9.37, 9.37, 9.67, 9.46, 9.09, 9.4, 9.4, 9.4, 9.52, 9.14, 9.45, 9.45, 9.34, 9.34, 9.6, 9.08, 8.91, 8.82, 8.63, 8.33, 8.29, 8.43, 7.98, 8.05, 8.05, 8.05, 8.49, 8.49, 8.94, 8.94, 9.83, 9.39, 9.39, 9.83, 9.83, 9.97, 10.6, 11.28, 12.27, 12.96, 13.41, 14.3, 15.2, 15.78, 15.11, 15.84, 23.46, 26.89, 23.79, 20.59, 16.75, 14.73, 14.23, 13.75, 12.96, -8.85, -0.0, 8.53, 6.7, 2.37, -0.0, -0.0, -0.0, 6.7, 6.7, 6.96, 6.96, 6.96, 6.96, 6.96, 6.96, 7.33, 7.61, 7.61, 7.95, 8.24, 8.24, 8.53, 8.53, 8.53, 8.53, 8.53, 8.82, 8.82, 8.82, 8.82, 8.82, 8.82, 9.46, 9.46, 9.46, 9.37, 9.37, 9.37, 9.02, 9.08, 9.08, 9.08, 9.37, 9.37, 9.09, 9.09, 9.4, 9.4, 9.4, 9.4, 9.52, 9.52, 9.45, 9.45, 9.34, 9.34, 9.34, 9.08, 9.08, 8.91, 8.4, 8.56, 8.29, 8.29, 7.98, 7.98, 8.05, 7.6, 8.05, 8.49, 8.94, 8.94, 10.28, 9.83, 9.39, 9.83, 9.83, 10.28, 10.73, 11.4, 11.91, 12.52, 13.41, 13.86, 14.3, 13.81, 13.99, 15.36, 19.08, 23.84, 23.43, 22.14, 17.14, 13.59, 11.12, 12.3, -12.52, -12.52, -0.0, 3.68, -0.0, -0.0, -1.52, -1.52, -1.52, 6.96, 6.96, 6.96, 6.96, 6.96, 6.96, 6.96, 6.96, 6.96, 7.61, 7.61, 7.61, 7.95, 8.24, 8.24, 8.53, 8.53, 8.53, 8.82, 8.82, 8.82, 8.82, 8.82, 8.82, 9.12, 9.12, 9.12, 9.12, 9.12, 9.37, 9.12, 9.08, 9.08, 9.08, 9.37, 9.37, 9.01, 9.09, 9.09, 9.4, 9.4, 9.4, 9.52, 9.52, 9.52, 9.84, 9.45, 9.45, 9.34, 9.34, 9.18, 9.08, 8.91, 8.48, 8.56, 8.33, 8.29, 8.0, 7.98, 7.98, 8.05, 7.6, 8.05, 8.49, 8.49, 8.94, 8.94, 9.21, 9.21, 9.64, 9.64, 10.28, 11.18, 11.91, 12.35, 12.96, 13.41, 13.23, 13.75, 13.81, 14.84, 15.54, 17.13, 20.19, 23.65, 18.54, 4.8, -0.0, -0.0, -11.2, -8.53, -0.0, -0.0, -0.0, -1.62, -1.16, -1.16, -1.16, 6.96, 6.96, 6.96, 6.7, 6.7, 6.97, 6.97, 7.24, 7.24, 7.61, 7.61, 7.61, 7.61, 8.24, 8.24, 8.53, 8.82, 8.82, 8.82, 8.82, 8.82, 8.82, 9.12, 9.12, 9.12, 9.12, 9.12, 9.12, 9.12, 9.12, 9.08, 9.08, 9.08, 8.73, 9.01, 8.79, 9.09, 9.09, 9.09, 9.4, 9.4, 9.4, 9.7, 9.52, 9.52, 9.52, 9.45, 9.45, 9.05, 9.34, 9.2, 9.08, 8.67, 8.4, 8.63, 8.14, 8.33, 7.85, 8.0, 7.98, 7.98, 7.6, 7.6, 8.05, 8.05, 8.94, 8.94, 9.39, 9.11, 9.64, 9.64, 9.83, 9.83, 11.02, 11.91, 12.52, 12.96, 12.96, 13.67, 14.6, 14.31, 14.31, 14.3, 16.79, 25.53, 18.41, 6.4, -2.6, -7.59, -5.0, -2.28, -1.91, -1.58, -1.52, -2.82, -2.39, -2.39, -2.39, 6.96, 6.96, 6.7, 6.7, 6.97, 6.97, 6.97, 6.97, 6.97, 7.33, 7.33, 7.61, 7.61, 7.9, 8.24, 8.24, 8.82, 8.82, 8.82, 8.82, 8.82, 8.82, 9.12, 9.12, 9.12, 9.12, 9.12, 9.12, 9.12, 9.08, 9.08, 9.08, 8.73, 9.01, 8.79, 8.79, 9.09, 9.09, 9.09, 9.4, 9.4, 9.4, 9.7, 9.52, 9.52, 9.52, 9.45, 9.45, 9.45, 9.34, 9.2, 9.08, 9.08, 8.4, 8.4, 8.19, 8.14, 7.89, 7.85, 8.0, 7.98, 7.54, 7.6, 7.6, 7.6, 7.15, 9.39, 9.39, 9.39, 9.83, 10.28, 10.08, 10.28, 9.83, 10.96, 11.4, 12.27, 12.96, 13.41, 13.86, 14.16, 14.16, 13.75, 16.71, 27.27, 20.56, 13.39, -0.0, -8.58, -7.59, -4.54, -1.11, -1.64, -2.71, -3.77, -2.13, -2.13, -2.13, 6.96, 6.96, 6.7, 6.97, 6.97, 6.97, 6.97, 6.97, 6.97, 6.97, 7.33, 7.61, 7.61, 7.9, 8.24, 8.24, 8.53, 8.82, 8.82, 8.82, 8.82, 8.82, 9.12, 9.12, 9.12, 9.12, 9.12, 8.78, 9.08, 9.08, 9.08, 8.73, 9.01, 9.01, 8.79, 9.09, 9.09, 9.09, 9.09, 9.4, 9.4, 9.4, 9.4, 9.7, 9.7, 9.52, 9.14, 9.45, 9.45, 9.05, 9.2, 8.8, 9.08, 8.48, 8.4, 8.19, 8.14, 8.33, 7.89, 8.0, 7.55, 7.54, 7.52, 7.52, 7.5, 7.6, 9.39, 9.39, 9.83, 9.39, 9.83, 10.28, 10.28, 10.28, 9.97, 10.96, 11.84, 12.27, 12.79, 12.96, 13.41, 13.86, 14.6, 27.27, 27.68, 19.67, 15.69, -0.0, -8.22, -7.81, -6.71, -3.53, -3.68, -3.19, -3.77, -3.25, -3.25, -3.25, 6.7, 6.7, 6.7, 6.97, 6.97, 6.97, 6.97, 6.97, 6.97, 6.97, 7.33, 7.61, 7.9, 7.9, 7.9, 8.24, 8.24, 8.53, 8.82, 8.82, 8.82, 8.82, 9.12, 9.12, 8.78, 8.78, 8.78, 9.08, 9.08, 9.08, 8.73, 9.01, 9.01, 8.79, 9.09, 9.09, 9.09, 9.09, 9.09, 9.4, 9.4, 9.4, 9.4, 9.7, 9.7, 9.7, 9.7, 9.45, 9.45, 9.05, 9.2, 8.8, 8.67, 8.48, 8.4, 8.19, 8.19, 8.33, 7.89, 7.89, 7.55, 7.54, 7.54, 7.52, 7.5, 7.5, 7.45, 7.6, 10.28, 10.28, 10.28, 10.08, 10.28, 10.28, 9.75, 10.73, 11.4, 11.84, 11.87, 11.87, 12.79, 13.86, 18.26, 26.33, 26.69, 18.78, 13.59, -3.14, -6.7, -8.82, -7.27, -5.54, -5.0, -4.4, -3.77, -3.61, -3.61, -3.61, 6.7, 6.7, 6.7, 6.97, 6.97, 6.97, 6.97, 6.97, 6.97, 6.97, 6.97, 7.9, 7.9, 7.9, 7.9, 7.9, 8.24, 8.53, 8.53, 8.82, 8.82, 9.12, 9.12, 8.78, 8.78, 8.78, 8.78, 9.08, 8.73, 8.73, 9.01, 9.01, 8.79, 8.79, 9.09, 9.09, 9.09, 9.09, 9.09, 9.4, 9.4, 9.4, 9.4, 9.4, 9.7, 9.7, 9.7, 9.6, 9.45, 9.45, 9.34, 9.34, 8.67, 8.91, 8.48, 8.24, 8.19, 8.36, 7.92, 7.89, 7.85, 7.55, 7.54, 7.54, 7.97, 7.97, 7.94, 7.89, 10.28, 10.41, 10.18, 10.73, 10.73, 10.28, 9.54, 9.64, 10.73, 11.4, 11.62, 10.73, 11.62, 13.15, 18.66, 23.21, 25.87, 17.7, -0.0, -4.8, -5.95, -7.9, -7.9, -6.76, -5.77, -5.0, -5.0, -3.87, -3.87, -3.87, 6.7, 6.7, 6.97, 6.97, 6.97, 6.97, 6.97, 6.97, 6.97, 7.26, 7.26, 7.61, 7.61, 7.9, 7.9, 7.9, 7.61, 7.93, 8.22, 8.22, 8.5, 8.78, 8.78, 8.78, 8.78, 8.78, 8.73, 8.73, 8.73, 8.73, 9.01, 9.01, 8.79, 9.09, 9.09, 9.09, 9.09, 9.09, 9.4, 9.4, 9.4, 9.4, 9.02, 9.02, 9.32, 9.32, 9.32, 9.6, 9.6, 9.45, 9.34, 9.34, 8.76, 8.91, 8.48, 8.67, 8.24, 8.19, 7.92, 7.89, 7.89, 7.85, 7.81, 7.81, 7.74, 7.74, 8.17, 8.17, 8.17, 10.41, 10.18, 10.73, 10.73, 10.28, 10.28, 10.28, 10.28, 10.96, 9.3, 9.66, 10.01, 12.79, 17.88, 20.51, 27.14, 24.44, 8.93, -3.19, -5.0, -7.15, -8.82, -7.14, -5.98, -5.2, -5.0, -4.05, -4.05, -4.05, 6.7, 6.7, 6.97, 6.97, 6.97, 6.97, 6.97, 6.97, 7.26, 7.26, 7.26, 7.61, 7.61, 7.61, 7.61, 7.61, 7.61, 7.93, 8.22, 8.22, 8.22, 8.78, 8.78, 8.78, 8.78, 8.73, 8.73, 8.73, 8.73, 9.01, 9.01, 8.79, 8.79, 8.73, 8.73, 8.73, 9.09, 9.09, 9.4, 9.4, 9.4, 9.02, 9.02, 9.02, 9.32, 9.32, 9.32, 9.6, 9.6, 9.6, 9.45, 9.18, 8.76, 8.97, 8.55, 8.48, 8.24, 8.24, 8.19, 7.92, 7.89, 7.89, 7.85, 7.81, 7.81, 8.17, 8.17, 7.81, 7.81, 8.55, 8.55, 10.18, 9.75, 9.83, 9.83, 9.83, 9.64, 10.08, 8.58, 9.3, 9.17, 11.09, 15.18, 19.22, 25.82, 27.72, 18.24, -0.0, -5.0, -7.9, -9.17, -8.64, -7.41, -5.77, -6.2, -5.54, -5.54, -5.54, 6.97, 6.97, 6.97, 6.97, 6.97, 6.97, 6.97, 7.26, 7.26, 7.26, 7.26, 7.26, 7.61, 7.61, 7.61, 7.61, 7.61, 7.91, 8.22, 8.22, 8.22, 8.22, 8.78, 8.45, 8.73, 8.73, 8.73, 8.73, 8.73, 8.65, 8.44, 8.44, 8.73, 8.73, 8.73, 8.73, 8.73, 9.09, 9.4, 9.4, 9.4, 9.02, 9.02, 9.32, 9.32, 9.32, 9.32, 9.6, 9.6, 9.6, 9.45, 9.26, 9.26, 8.97, 8.55, 8.55, 8.24, 8.24, 8.19, 8.36, 7.92, 7.89, 7.89, 8.29, 8.29, 7.95, 8.37, 8.37, 8.0, 8.55, 8.55, 8.55, 9.33, 8.91, 8.72, 8.72, 8.72, 8.72, 8.23, 9.3, 11.2, 11.99, 13.99, 16.91, 23.61, 27.72, 19.67, 4.95, -7.82, -9.3, -9.97, -9.52, -9.66, -7.73, -6.45, -6.45, -6.45, -6.45, 6.97, 6.97, 6.97, 6.97, 6.97, 6.97, 7.26, 7.26, 7.26, 7.26, 7.26, 7.61, 7.61, 7.61, 7.61, 7.61, 7.91, 7.91, 8.22, 8.22, 8.22, 8.22, 8.19, 8.45, 8.73, 8.73, 8.73, 8.73, 8.65, 8.44, 8.44, 8.44, 8.73, 8.73, 8.73, 8.73, 8.73, 9.02, 9.02, 9.02, 9.02, 9.02, 9.02, 9.32, 9.32, 9.32, 9.6, 9.6, 9.6, 9.86, 9.45, 9.26, 9.26, 9.03, 8.55, 8.55, 8.12, 8.06, 8.24, 8.19, 8.36, 8.36, 8.33, 8.33, 8.06, 8.06, 8.48, 8.0, 8.0, 8.0, 7.64, 7.9, 7.27, 7.81, 8.4, 8.4, 8.4, 9.54, 9.75, 10.79, 11.62, 12.72, 14.18, 16.15, 22.53, 27.66, 19.61, 15.61, -7.93, -11.64, -10.94, -10.8, -10.41, -9.17, -7.02, -6.7, -6.7, -6.7, 6.58, 6.58, 6.97, 6.97, 6.97, 6.97, 7.26, 7.26, 7.26, 7.26, 7.26, 7.61, 7.61, 7.61, 7.61, 7.91, 7.91, 7.91, 8.22, 7.9, 7.9, 7.9, 8.19, 8.19, 8.73, 8.73, 8.49, 8.49, 8.44, 8.44, 8.44, 8.44, 8.73, 8.73, 8.73, 8.73, 8.73, 9.02, 9.02, 9.02, 9.02, 9.02, 9.32, 9.32, 9.32, 9.6, 9.6, 9.6, 9.6, 9.6, 9.45, 9.04, 9.26, 9.03, 9.03, 8.6, 8.55, 8.12, 8.24, 8.24, 8.19, 8.19, 8.19, 8.14, 8.14, 8.14, 8.48, 8.17, 8.0, 8.17, 7.96, 7.9, 8.55, 8.93, 7.81, 8.8, 9.13, 9.7, 10.14, 10.58, 11.91, 12.46, 13.15, 14.84, 20.47, 27.65, 21.9, 16.09, 13.88, -0.0, -10.01, -9.42, -8.53, -8.32, -7.51, -6.4, -6.4, -6.4, 6.33, 6.33, 6.71, 6.71, 6.71, 6.98, 7.26, 7.26, 7.26, 7.26, 7.26, 7.61, 7.61, 7.61, 7.61, 7.6, 7.6, 7.6, 7.6, 7.9, 7.9, 7.9, 7.9, 8.19, 8.49, 8.49, 8.49, 8.79, 8.44, 8.44, 8.44, 8.44, 8.73, 8.73, 8.73, 8.73, 8.73, 9.02, 9.02, 9.2, 9.02, 9.32, 9.32, 9.32, 9.32, 9.6, 9.6, 9.6, 9.6, 9.2, 9.45, 9.26, 9.26, 9.03, 9.03, 8.6, 8.6, 8.74, 8.71, 8.24, 8.24, 8.24, 8.19, 8.19, 8.14, 8.14, 8.3, 8.3, 8.17, 8.17, 8.21, 7.96, 7.64, 9.3, 7.81, 8.8, 9.33, 9.7, 10.14, 10.58, 11.03, 11.92, 12.03, 13.48, 18.21, 24.98, 24.14, 18.73, 15.46, 14.55, 11.53, -0.0, -5.8, -6.44, -6.08, -5.6, -5.6, -5.6, 6.33, 6.33, 6.71, 6.71, 6.71, 6.98, 7.26, 7.26, 7.26, 7.26, 7.26, 7.61, 7.61, 7.61, 7.61, 7.6, 7.6, 7.6, 7.6, 7.9, 7.9, 7.9, 7.9, 8.19, 8.49, 8.49, 8.49, 8.79, 8.44, 8.44, 8.44, 8.44, 8.73, 8.73, 8.73, 8.73, 8.73, 9.02, 9.02, 9.2, 9.02, 9.32, 9.32, 9.32, 9.32, 9.6, 9.6, 9.6, 9.6, 9.2, 9.45, 9.26, 9.26, 9.03, 9.03, 8.6, 8.6, 8.74, 8.71, 8.24, 8.24, 8.24, 8.19, 8.19, 8.14, 8.14, 8.3, 8.3, 8.17, 8.17, 8.21, 7.96, 7.64, 9.3, 7.81, 8.8, 9.7, 9.7, 10.14, 10.58, 11.03, 11.5, 11.64, 12.79, 15.41, 20.06, 23.69, 20.83, 18.85, 15.55, 14.42, 11.72, 1.72, -3.25, -4.39, -4.75, -4.75, -4.75]}, {"header": {"dx": 0.06612293990616946, "dy": 0.0552356325346848, "nx": 98, "ny": 59, "la1": 35.046912555036876, "la2": 31.78801023549047, "lo1": -121.43107172385933, "lo2": -114.95102361305473, "refTime": "2026041603", "parameterCategory": 1, "parameterNumber": 3}, "data": [-14.3, -14.08, -14.08, -13.44, -13.19, -12.27, -11.96, -11.36, -10.75, -10.72, -9.8, -8.85, -9.21, -6.67, -4.48, -2.82, 0.0, 0.0, 0.0, 0.0, 4.1, 4.1, 2.82, 0.0, 0.0, -3.68, -12.07, -11.2, -10.8, -11.71, -12.14, -12.96, -12.52, -10.84, -9.2, -7.87, -6.64, -5.63, -5.63, -7.27, -7.68, -7.9, -7.26, -7.02, -7.44, -7.82, -8.62, -6.05, 0.0, 9.8, 10.12, 8.85, 8.43, 8.05, 7.49, 7.0, 6.16, 5.26, 5.11, 4.96, 4.34, 4.34, 4.66, 4.52, 3.36, 3.22, 3.0, 3.0, 4.47, 5.09, 5.09, 4.95, 3.52, 2.38, 2.57, 2.38, 1.13, 0.89, 0.0, 0.0, 0.0, 4.24, 4.1, 3.04, 2.93, 3.68, 12.07, 10.96, 11.06, 11.18, 12.52, 13.15, 12.87, 12.65, 11.8, 10.12, 9.17, 9.17, -14.3, -14.08, -13.73, -13.73, -13.44, -12.86, -11.67, -11.63, -11.03, -10.43, -10.09, -9.8, -8.54, -6.94, -4.81, -2.93, 0.0, 0.0, 0.0, 0.0, 0.0, 0.0, 0.0, 0.0, 0.0, -2.71, -11.03, -10.8, -10.35, -11.2, -13.28, -13.59, -12.52, -9.83, -7.2, -7.15, -5.69, -5.36, -5.63, -7.27, -8.85, -9.48, -9.17, -8.42, -9.31, -8.86, -6.6, 0.0, 10.82, 11.33, 9.6, 8.06, 7.38, 7.28, 5.85, 6.02, 5.62, 4.18, 4.18, 4.05, 3.32, 3.32, 3.47, 3.36, 3.36, 3.12, 3.22, 3.22, 4.81, 5.09, 4.86, 5.09, 3.9, 2.31, 2.5, 2.43, 1.13, 0.89, 0.0, 0.0, 0.0, 4.24, 4.1, 3.04, 2.93, 3.68, 12.07, 10.96, 11.06, 11.18, 12.52, 13.15, 12.87, 12.65, 11.8, 10.12, 9.17, 9.17, -13.73, -13.73, -13.73, -13.73, -13.73, -13.19, -12.27, -11.96, -11.03, -10.43, -10.09, -8.78, -9.17, -7.02, -5.2, -3.68, 0.0, 0.0, -2.93, -4.1, -5.2, -5.6, -5.6, -4.24, -4.38, -4.8, -10.18, -10.41, -8.94, -9.97, -12.65, -14.11, -14.03, -11.18, -7.6, -6.32, -6.01, -5.59, -6.14, -7.44, -9.08, -8.93, -9.17, -9.06, -8.72, -6.85, 0.0, 10.47, 10.43, 9.73, 8.83, 6.8, 6.17, 5.64, 4.66, 3.69, 3.42, 3.18, 3.09, 3.09, 3.32, 3.47, 3.36, 3.36, 3.36, 3.47, 4.66, 4.95, 4.6, 5.09, 4.73, 4.73, 3.52, 3.69, 2.64, 2.43, 1.26, 1.08, 0.0, 0.0, 0.0, 4.24, 4.1, 2.93, 2.82, 11.03, 11.06, 10.75, 11.02, 12.52, 14.03, 14.47, 13.19, 11.8, 11.44, 10.73, 10.37, 10.73, -14.02, -13.73, -13.73, -13.73, -13.73, -13.15, -12.86, -11.67, -11.36, -10.72, -10.09, -9.66, -9.36, -7.44, -5.2, -4.32, -2.28, -2.93, -3.68, -3.82, -3.53, -5.0, -7.9, -7.9, -6.7, -9.17, -10.28, -9.54, -8.8, -9.58, -11.09, -12.74, -14.84, -15.65, -12.14, -7.59, -8.23, -6.7, -7.27, -8.75, -9.3, -9.17, -8.1, -6.08, -3.04, 1.83, 7.69, 9.16, 8.57, 7.32, 6.6, 4.81, 4.24, 4.24, 2.64, 2.43, 2.24, 2.24, 2.24, 2.18, 3.58, 3.47, 3.47, 3.36, 4.38, 4.66, 6.02, 6.56, 6.87, 8.48, 7.4, 5.62, 5.62, 4.05, 2.35, 0.0, 0.0, 0.0, 0.0, 0.0, 4.24, 6.0, 3.14, 2.82, 10.6, 11.4, 11.61, 11.03, 11.02, 13.86, 14.75, 14.31, 12.39, 11.16, 12.58, 13.15, 12.3, 11.87, -14.02, -14.02, -14.02, -13.38, -13.15, -13.15, -13.15, -12.27, -11.63, -10.72, -9.77, -9.94, -9.42, -8.22, -5.75, -5.98, -4.32, -2.82, -5.2, -8.53, -9.17, -8.85, -8.22, -5.2, -5.95, -11.45, -12.52, -11.45, -10.6, -10.08, -10.18, -10.46, -11.03, -12.45, -14.16, -12.79, -13.59, -10.65, -9.08, -9.53, -9.17, -6.43, -2.2, 0.0, 3.81, 5.46, 7.1, 7.93, 7.32, 7.54, 5.18, 3.1, 3.1, 2.89, 2.89, 1.34, 2.43, 2.43, 3.32, 3.22, 3.47, 3.36, 3.36, 4.66, 4.66, 5.65, 7.03, 8.51, 10.78, 11.16, 10.31, 8.87, 8.2, 6.47, 3.52, 0.0, -1.25, -2.35, 0.0, 1.66, 4.1, 0.0, 0.0, 7.9, 10.0, 9.08, 10.35, 10.79, 13.01, 15.2, 14.3, 12.96, 12.14, 12.96, 12.96, 13.41, 12.46, 11.87, -13.66, -13.66, -13.66, -13.66, -13.15, -13.15, -13.15, -13.15, -12.22, -10.99, -10.06, -9.3, -9.53, -7.44, -6.98, -5.75, -5.75, -5.98, -6.98, -9.67, -10.68, -11.98, -13.41, -13.41, -11.87, -11.45, -12.07, -11.84, -12.71, -11.71, -9.64, -10.14, -10.2, -10.28, -11.91, -13.37, -12.25, -9.42, -7.59, -8.73, -8.85, -4.52, 0.0, 0.0, 3.47, 7.32, 8.57, 8.31, 8.31, 6.4, 4.87, 3.01, 3.01, 3.1, 2.89, 2.64, 3.88, 3.58, 4.34, 3.93, 3.12, 3.02, 3.58, 3.69, 5.5, 8.74, 10.7, 10.15, 10.61, 11.16, 10.87, 9.0, 8.63, 7.53, 5.47, 2.34, -1.21, -3.14, 0.0, 2.13, 0.0, -5.2, 0.0, 11.03, 6.97, 4.32, 5.4, 7.44, 10.43, 10.12, 12.58, 13.41, 13.41, 12.79, 12.83, 13.41, 12.46, 12.04, -13.66, -13.66, -13.66, -13.66, -13.15, -13.15, -13.15, -12.8, -12.22, -11.58, -10.01, -9.01, -8.75, -7.15, -6.7, -5.52, -6.2, -7.44, -8.22, -8.49, -9.48, -11.03, -11.18, -12.07, -12.52, -11.62, -11.62, -11.61, -11.87, -10.18, -10.84, -9.83, -9.83, -9.29, -10.91, -12.58, -12.04, -9.48, -8.22, -7.27, -11.2, -5.8, 0.0, 3.69, 7.0, 9.73, 10.47, 9.12, 8.31, 5.46, 5.63, 4.87, 4.52, 4.66, 4.11, 3.65, 3.47, 3.47, 3.22, 2.9, 1.9, 2.04, 2.5, 4.62, 9.92, 11.7, 10.61, 9.23, 7.49, 6.88, 6.05, 4.42, 3.56, 3.24, 2.95, 2.11, 1.17, 0.0, 0.0, 0.0, 0.0, -8.22, 0.0, 10.04, 5.4, -0.0, -0.0, -0.0, -0.0, 7.44, 11.5, 12.72, 13.23, 13.33, 13.41, 12.86, 11.72, 11.09, -13.58, -13.66, -13.66, -13.66, -13.44, -13.15, -12.8, -12.56, -12.51, -11.87, -10.51, -9.48, -9.3, -7.44, -7.02, -6.24, -6.76, -7.24, -7.56, -8.22, -6.98, -5.0, -8.53, -11.3, -11.18, -10.28, -10.08, -9.6, -9.97, -10.38, -11.02, -11.62, -11.18, -10.58, -10.75, -11.02, -10.28, -10.0, -8.85, -8.22, 0.0, 12.07, 8.85, 9.8, 10.43, 11.38, 10.02, 9.66, 7.16, 7.1, 4.39, 4.71, 4.38, 3.98, 3.65, 3.36, 2.28, 1.15, 0.96, 0.0, 0.0, 0.0, 3.3, 9.09, 12.87, 12.7, 9.99, 6.02, 2.64, 1.3, 0.0, 0.0, 0.0, -1.11, 0.0, 0.0, 1.02, 2.63, 2.13, 0.0, -1.96, -3.96, 0.0, 11.87, 8.85, -0.0, -4.98, -2.63, -0.0, 9.17, 11.12, 11.6, 12.56, 13.59, 13.41, 12.44, 11.09, 10.68, -13.58, -13.58, -13.3, -13.09, -13.09, -12.8, -12.8, -12.51, -12.16, -11.8, -10.7, -10.16, -10.99, -10.73, -9.53, -9.08, -8.53, -8.53, -8.22, -8.94, -6.2, -2.28, -3.68, -4.24, -8.53, -11.2, -9.39, -4.4, -8.55, -10.18, -10.28, -10.73, -10.73, -11.18, -11.18, -10.28, -10.73, -10.73, -8.22, 0.0, 5.6, 8.85, 8.85, 9.48, 4.52, 6.2, 3.9, 6.31, 7.2, 6.17, 5.18, 5.8, 5.45, 3.98, 2.72, 1.25, 0.0, 0.0, 0.0, -0.86, -1.04, 0.0, 6.8, 12.73, 12.87, 10.61, 7.8, 3.9, 0.0, -1.47, -3.16, -2.96, -2.72, -2.21, -2.09, -1.19, 0.0, 0.0, 0.0, 0.0, 0.0, 0.0, 3.93, 6.2, 11.2, -0.0, -5.8, -0.0, 6.44, 9.96, 10.55, 11.6, 12.04, 12.72, 13.41, 12.42, 10.68, 11.09, -13.58, -13.58, -13.58, -13.09, -13.09, -13.09, -12.8, -12.51, -12.45, -11.8, -11.44, -11.5, -10.83, -11.6, -11.41, -10.81, -11.41, -11.41, -11.03, -10.6, -10.18, -10.21, -9.3, -8.82, -7.9, -9.58, -9.83, -0.0, -10.73, -10.28, -10.73, -11.18, -9.83, -10.73, -11.62, -11.62, -10.73, 0.0, 0.0, 0.0, 2.37, 5.6, 6.7, 3.68, 2.82, 0.0, 0.0, 0.0, 4.3, 7.0, 7.82, 7.82, 5.81, 4.38, 3.01, 1.58, 0.0, 0.0, -1.01, -2.24, 0.0, 6.14, 14.95, 13.65, 12.11, 10.7, 9.2, 7.2, 1.96, -2.35, -4.05, -4.95, -2.88, -2.65, -2.38, -2.11, -2.4, -2.28, -2.16, 0.0, 4.81, 9.61, 8.03, 8.68, 8.31, 6.0, 0.0, 13.86, 13.15, 11.6, 11.33, 10.94, 11.2, 12.14, 12.96, 12.39, 12.04, 12.04, -13.21, -13.58, -13.38, -13.09, -13.09, -13.09, -13.09, -12.51, -12.09, -11.72, -11.62, -11.9, -11.72, -11.62, -11.64, -11.44, -12.62, -12.11, -12.11, -12.78, -13.72, -14.15, -13.23, -11.5, -11.6, -10.52, -9.2, -0.0, -9.83, -8.18, -9.75, -9.39, -0.0, -0.0, -9.83, -11.62, -8.22, 0.0, 3.68, 2.45, 4.81, 5.6, 3.68, 2.93, 0.0, 0.0, 0.0, 2.06, 4.81, 8.38, 10.43, 11.38, 10.47, 10.47, 10.3, 11.7, 10.59, 4.38, 0.0, 0.0, 12.33, 16.44, 15.11, 14.39, 14.13, 15.45, 16.6, 14.88, 11.87, 3.04, 0.0, 0.0, -1.78, -2.88, -3.69, -3.02, -4.47, -4.15, -6.4, 0.0, 10.75, 11.06, 10.77, 9.99, 10.05, 7.32, 5.64, 7.82, 12.42, 13.41, 11.72, 11.5, 11.5, 11.72, 11.95, 12.96, 12.83, 12.46, -13.21, -13.01, -13.38, -13.09, -13.09, -13.09, -13.09, -12.51, -12.09, -11.72, -11.72, -12.27, -12.0, -11.44, -10.3, -9.66, -9.37, -10.15, -11.26, -11.66, -11.34, -11.33, -11.07, -12.73, -10.47, -10.41, -12.07, -0.0, -0.0, -10.73, -11.18, 0.0, -0.0, 0.0, 0.0, 0.0, 0.0, 6.45, 6.45, 5.4, 7.51, 7.24, 4.32, 2.28, 0.0, 0.0, 3.82, 8.85, 10.79, 12.39, 12.79, 13.76, 16.79, 19.08, 18.24, 18.41, 17.99, 15.28, 8.53, 13.86, 17.88, 17.78, 16.27, 15.38, 15.78, 18.93, 21.76, 21.92, 18.38, 13.82, 10.43, 6.2, 1.83, -1.89, -4.1, -3.67, -5.2, -6.6, 0.0, 11.06, 11.38, 11.38, 9.42, 10.52, 12.02, 12.31, 8.35, 6.17, 9.44, 13.15, 12.39, 10.68, 10.88, 11.18, 12.39, 12.96, 12.96, 12.83, -13.21, -13.01, -13.01, -13.38, -13.09, -13.09, -12.73, -12.45, -12.37, -11.8, -11.72, -12.27, -12.37, -11.87, -10.4, -9.17, -8.79, -8.1, -8.23, -7.44, -5.99, -3.58, -2.64, -0.87, 0.0, 0.0, 0.0, 0.0, -0.0, -0.0, -0.0, -0.0, 0.0, 0.0, 4.6, 4.6, 7.27, 9.3, 9.3, 6.2, 5.2, 5.2, 4.15, 2.39, 0.0, 0.0, 8.22, 11.45, 12.3, 11.16, 11.2, 11.99, 13.88, 15.2, 16.99, 17.78, 17.99, 18.24, 5.09, 12.07, 16.03, 16.37, 16.76, 15.74, 18.29, 20.08, 22.31, 24.78, 23.11, 21.98, 17.45, 14.86, 6.4, 0.0, -3.45, -5.2, -3.58, 7.2, 12.87, 10.76, 9.66, 8.21, 6.54, 5.23, 9.99, 10.41, 9.91, 9.2, 11.38, 12.79, 13.72, 11.53, 10.84, 11.03, 12.35, 12.96, 12.96, 13.41, -13.48, -13.01, -13.01, -13.38, -13.09, -13.09, -12.51, -12.45, -12.37, -11.8, -12.09, -11.8, -12.0, -11.87, -10.99, -10.09, -9.15, -8.18, -7.44, -6.57, -5.31, -4.76, -3.75, -2.19, -1.42, -0.71, -0.77, -1.06, -4.24, -0.0, -0.0, -0.0, 11.18, 6.95, 4.4, 6.95, 8.18, 8.55, 7.27, 5.95, 2.6, 0.0, 0.0, 0.0, 0.0, 4.6, 9.39, 10.6, 10.4, 11.2, 8.85, 0.0, 0.0, 0.0, 0.0, 0.0, 0.0, 0.0, 0.0, 12.39, 13.59, 15.65, 16.15, 16.88, 16.48, 16.54, 17.43, 18.78, 20.63, 18.24, 17.61, 15.8, 12.96, 0.0, -2.71, 0.0, 13.76, 13.61, 11.06, 9.42, 7.6, 4.75, 1.56, 0.0, 5.81, 5.65, 6.88, 9.43, 12.33, 14.03, 13.07, 11.06, 11.18, 12.52, 12.52, 12.96, 12.96, 12.96, -13.48, -13.21, -13.01, -13.38, -13.09, -13.09, -12.51, -12.45, -12.09, -11.8, -11.8, -11.8, -11.8, -11.52, -10.94, -10.09, -9.48, -9.08, -8.2, -7.69, -6.9, -5.9, -4.95, -4.11, -3.31, -2.72, -2.06, -1.53, -3.25, -4.98, 0.0, 0.0, 7.9, 7.27, 4.6, 9.75, 9.6, 8.8, 7.9, 3.11, 0.0, 0.0, 0.0, 0.0, 0.0, 9.33, 9.83, 10.28, 9.6, 7.9, 0.0, 0.0, 0.0, 0.0, 0.0, 0.0, -8.22, -8.66, -3.59, 10.46, 12.96, 12.96, 13.59, 13.28, 13.7, 14.75, 16.54, 16.12, 13.39, 16.09, 15.8, 17.17, 18.39, 12.52, 9.48, 13.23, 13.39, 11.77, 9.42, 8.13, 7.8, 5.81, 1.42, 0.0, -2.54, 0.0, 4.81, 7.82, 11.38, 13.76, 14.85, 11.99, 11.51, 12.52, 13.41, 12.96, 12.96, 12.96, -13.48, -13.21, -13.01, -13.38, -13.38, -13.09, -12.73, -12.45, -12.09, -11.8, -11.8, -11.8, -11.8, -11.23, -10.36, -10.36, -9.48, -9.17, -8.42, -7.99, -7.03, -6.27, -5.38, -5.1, -3.58, -2.89, -2.06, -1.38, -1.48, -1.9, -1.33, 0.0, 0.0, 0.0, 3.25, 7.44, 9.55, 8.82, 7.59, 2.49, 0.0, 0.0, 0.0, 0.0, 5.46, 8.91, 9.83, 10.28, 9.2, 7.27, 5.0, 0.0, 3.68, 2.6, 2.28, 3.11, 0.0, -4.32, 0.0, 8.68, 9.82, 9.97, 9.3, 8.53, 3.82, 4.1, 0.0, 6.8, 13.39, 17.59, 20.36, 8.4, -0.0, 13.28, 12.65, 14.31, 14.37, 12.56, 10.78, 10.78, 10.17, 9.84, 6.9, 2.43, 0.0, 0.0, 2.63, 8.1, 10.55, 11.75, 13.02, 12.14, 12.88, 13.33, 12.22, 11.95, 12.39, 12.39, -13.48, -13.48, -13.01, -13.01, -13.38, -12.73, -12.73, -12.45, -12.09, -11.87, -11.8, -11.8, -11.23, -11.23, -10.65, -10.3, -9.48, -9.17, -8.53, -7.73, -6.99, -6.51, -5.2, -4.17, -2.81, -1.42, -1.4, -0.7, 0.0, 0.0, -0.84, -0.92, 0.0, 0.0, 2.83, 6.64, 8.18, 5.95, 3.25, 0.0, 0.0, 0.0, 0.0, 2.17, 5.46, 8.18, 9.75, 9.75, 8.55, 5.7, 5.7, 4.8, 5.0, 4.8, 3.98, 3.82, 2.02, 0.0, 5.4, 7.54, 8.85, 7.9, 7.59, 4.8, 2.1, 0.0, 0.0, 0.0, 9.8, 12.33, 0.0, -10.17, -5.65, 0.0, 12.64, 15.28, 15.55, 13.91, 12.71, 12.02, 12.03, 10.25, 8.74, 7.38, 7.93, 9.3, 8.53, 11.12, 11.64, 11.75, 11.64, 11.37, 12.14, 12.58, 12.58, 11.71, 12.04, 12.04, -13.48, -13.3, -13.01, -13.01, -13.01, -13.01, -13.01, -12.45, -12.45, -11.87, -11.8, -11.44, -11.23, -10.65, -10.3, -9.72, -9.77, -9.19, -8.24, -7.19, -6.04, -5.74, -5.2, -3.41, -1.99, -0.68, -0.72, -0.72, -0.72, -0.76, -1.54, -1.66, 0.0, 0.0, 1.33, 0.0, 0.0, 0.0, 0.0, 0.0, 0.0, 0.0, 0.0, 3.25, 5.7, 8.55, 8.93, 8.55, 5.7, 4.6, 4.6, 4.6, 3.82, 3.82, 5.29, 5.29, 5.29, 6.7, 6.2, 7.15, 7.73, 6.45, 5.52, 3.98, 2.1, 0.0, 0.0, 0.0, -8.53, -11.06, -14.22, -10.91, 0.0, 5.89, 8.65, 13.05, 12.64, 10.69, 10.91, 10.69, 9.36, 8.56, 7.4, 7.44, 8.85, 10.19, 10.12, 10.79, 11.99, 12.27, 12.13, 11.33, 10.4, 11.09, 11.92, 11.92, 11.2, 11.2, -13.3, -13.3, -13.01, -13.01, -13.01, -13.01, -13.01, -12.8, -12.45, -11.87, -11.52, -11.23, -10.88, -10.65, -10.59, -10.92, -9.72, -9.48, -8.24, -6.53, -6.0, -6.34, -5.93, -5.62, -3.68, -3.98, -2.97, -2.9, -2.81, -3.71, -3.36, -1.08, 0.0, 0.0, 0.0, 0.0, -4.05, -5.69, -4.4, -2.6, -1.93, -2.02, 0.0, 2.71, 6.45, 7.59, 7.59, 5.7, 5.7, 4.6, 4.6, 3.82, 3.82, 6.17, 7.27, 7.27, 6.42, 6.98, 8.53, 6.45, 6.45, 5.2, 3.53, 1.62, 0.0, 0.0, 0.0, 0.0, -3.39, -5.31, 0.0, 2.84, 5.04, 6.26, 5.07, 3.07, 0.0, 0.0, 1.13, 3.42, 2.79, 1.45, 1.6, 4.39, 8.59, 9.48, 8.38, 10.12, 11.5, 12.45, 13.57, 11.37, 9.82, 10.4, 12.39, 12.79, 11.53, 11.53, -12.93, -13.3, -13.3, -13.01, -13.01, -12.65, -12.65, -12.45, -12.16, -11.87, -11.52, -11.23, -10.65, -10.94, -10.94, -9.76, -9.42, -9.37, -9.26, -7.93, -7.74, -7.54, -8.28, -7.89, -7.78, -7.19, -6.53, -6.0, -5.9, -5.2, -3.04, 0.0, 0.0, 2.93, 2.82, 0.0, -3.39, -4.8, -3.98, -3.51, -2.82, -0.97, 0.0, 2.19, 5.0, 5.2, 4.6, 4.6, 4.6, 4.4, 4.4, 4.6, 6.44, 8.94, 7.87, 7.68, 7.9, 7.59, 6.87, 5.2, 3.53, 3.98, 2.1, 1.76, 0.0, 0.0, 4.6, 7.9, 6.21, 4.71, 6.36, 6.55, 6.63, 5.6, 1.9, -2.05, -7.71, -9.47, -4.54, -2.58, 0.0, 0.0, 0.0, 4.24, 7.13, 9.48, 10.3, 11.26, 11.12, 11.62, 12.45, 11.5, 10.79, 11.12, 12.39, 13.03, 11.52, 11.52, -12.93, -12.93, -12.93, -12.65, -12.65, -12.45, -12.45, -12.45, -12.45, -11.58, -11.52, -11.23, -10.65, -10.94, -10.65, -10.06, -9.76, -9.71, -9.66, -9.89, -9.31, -9.42, -9.69, -9.73, -9.06, -8.69, -7.53, -6.36, -5.68, -4.17, -2.52, 0.0, 0.0, 1.91, 1.91, 2.19, 0.0, -3.39, -3.77, -3.21, -2.94, -0.93, 0.0, 2.16, 3.68, 4.48, 4.4, 4.6, 2.49, 2.49, 2.39, 4.6, 8.58, 10.38, 9.2, 8.82, 8.59, 8.94, 7.26, 4.15, 4.15, 4.15, 2.1, 0.0, 2.49, 7.59, 10.73, 11.91, 12.14, 11.09, 11.63, 10.65, 8.43, 1.25, -1.96, -6.32, -13.51, -14.06, -12.19, -8.94, -3.79, -1.3, 1.63, 6.65, 8.87, 10.47, 12.33, 12.72, 12.45, 10.8, 11.62, 11.5, 11.17, 11.5, 11.88, 12.65, 11.52, 11.52, -12.93, -12.93, -12.93, -12.93, -12.73, -12.73, -12.37, -12.45, -12.45, -11.87, -11.52, -10.94, -10.65, -10.65, -10.39, -10.39, -10.09, -10.09, -10.39, -10.74, -9.8, -9.46, -8.81, -8.87, -8.78, -8.08, -7.17, -5.8, -4.24, -2.53, -1.09, 0.0, 0.0, 0.0, 1.16, 1.23, 0.0, 0.0, -1.58, -2.71, -3.21, -2.19, 0.0, 0.0, 2.42, 3.77, 4.8, 2.39, 2.49, 2.49, 5.7, 7.59, 9.6, 10.38, 9.96, 9.58, 10.09, 10.94, 8.93, 6.44, 3.25, 3.39, 2.71, 2.71, 6.2, 10.96, 11.62, 12.07, 12.83, 14.55, 14.38, 15.27, 12.72, 2.67, -6.53, -8.85, -13.26, -15.76, -15.63, -13.39, -10.39, -6.14, 0.0, 7.54, 10.99, 12.33, 13.01, 13.88, 12.9, 9.82, 8.53, 10.73, 11.44, 12.27, 12.27, 12.27, 10.43, 10.43, -12.93, -12.93, -12.93, -12.73, -12.37, -12.37, -12.37, -12.37, -12.09, -11.87, -11.52, -10.94, -10.99, -10.65, -10.39, -10.39, -10.11, -10.11, -10.73, -10.75, -9.44, -8.23, -7.6, -7.87, -7.85, -7.4, -6.2, -5.38, -4.1, -2.87, -1.6, -0.83, -0.83, 0.0, 0.0, 0.0, 0.0, 0.0, 0.0, -1.64, -2.82, -2.82, -1.28, 0.0, 0.0, 3.07, 2.6, 2.28, 2.97, 3.25, 5.7, 9.6, 9.6, 10.0, 9.96, 9.96, 10.6, 11.6, 9.96, 7.13, 6.64, 4.6, 5.2, 8.22, 10.84, 11.02, 11.51, 11.18, 11.62, 12.52, 13.86, 12.64, 18.65, 0.0, -7.63, -8.4, -10.61, -12.82, -14.99, -14.79, -11.97, -12.02, 0.0, 8.05, 12.65, 13.15, 13.15, 12.79, 12.65, 11.54, 10.12, 9.48, 11.44, 12.79, 12.27, 11.17, 8.94, 8.94, -12.37, -12.37, -12.37, -12.37, -12.37, -12.37, -12.37, -11.8, -11.8, -11.52, -11.28, -10.94, -10.69, -10.99, -10.39, -10.39, -10.44, -10.44, -10.12, -9.8, -9.16, -7.85, -6.94, -6.8, -6.76, -6.99, -6.25, -5.93, -4.64, -3.47, -2.87, -2.1, -1.44, -0.74, -0.74, 0.0, 0.0, 0.0, 0.0, -1.44, -1.44, -2.82, -2.82, -1.44, 0.0, 1.58, 3.04, 2.71, 2.6, 6.2, 8.22, 7.9, 8.93, 9.6, 9.97, 9.97, 9.97, 10.8, 10.37, 8.93, 6.32, 5.21, 7.9, 11.03, 10.96, 11.95, 11.95, 12.35, 11.02, 11.18, 0.0, -14.54, -6.29, 6.83, 6.14, 6.0, 6.0, -3.14, -12.27, -13.84, -13.02, -11.9, -2.89, 6.4, 14.47, 14.55, 13.7, 12.65, 13.03, 13.1, 10.65, 11.5, 11.88, 12.39, 11.44, 10.12, 7.13, 7.13, -12.37, -12.37, -12.37, -12.37, -12.37, -12.37, -11.8, -11.8, -11.8, -11.8, -11.28, -10.94, -10.69, -10.69, -10.73, -10.73, -10.44, -10.11, -9.8, -9.17, -8.87, -8.51, -7.85, -7.19, -6.76, -6.3, -6.51, -5.45, -4.86, -4.24, -3.66, -2.97, -2.18, -1.44, -1.39, -0.71, -0.74, -1.58, -1.84, -2.08, -2.28, -2.52, -2.71, -1.39, 0.0, 0.0, 0.0, 1.33, 2.13, 3.11, 3.77, 5.6, 5.95, 8.93, 9.75, 9.97, 9.75, 9.33, 11.03, 8.85, 6.2, 3.7, 6.95, 10.73, 11.4, 11.91, 11.95, 11.98, 11.95, 10.4, -6.0, -7.76, -2.72, 6.23, 10.29, 10.58, 10.13, 6.47, -2.35, -11.99, -12.39, -9.02, -4.24, 4.24, 14.31, 14.47, 13.7, 13.7, 14.42, 14.65, 14.85, 12.51, 11.9, 11.8, 9.48, 8.31, 5.15, 5.15, -12.37, -12.37, -12.37, -12.37, -12.37, -12.37, -11.8, -11.8, -11.44, -11.23, -11.23, -10.94, -10.69, -10.69, -10.42, -10.39, -10.11, -9.8, -9.8, -9.17, -9.17, -8.51, -8.11, -7.44, -6.99, -6.3, -5.8, -5.27, -4.94, -4.31, -4.31, -3.87, -3.04, -2.22, -2.14, -1.48, -1.42, -1.42, -2.34, -2.51, -2.71, -3.06, -2.19, -1.11, 0.0, 0.0, 1.28, 1.14, 1.09, 1.09, 2.42, 3.07, 3.04, 8.53, 10.6, 10.18, 8.55, 8.8, 9.2, 10.4, 2.93, 5.4, 5.21, 8.8, 10.96, 11.91, 12.35, 12.35, 12.3, 10.41, 0.0, -2.81, 0.0, 3.19, 10.93, 14.94, 12.63, 7.17, 0.0, -8.22, -11.64, -9.8, -7.82, 0.0, 13.88, 15.34, 14.11, 13.99, 13.99, 13.97, 13.82, 13.06, 10.75, 11.06, 7.13, 5.31, 2.72, 2.72, -12.27, -12.27, -12.0, -11.8, -11.8, -11.8, -11.8, -11.8, -11.23, -11.23, -11.23, -11.23, -10.69, -10.69, -10.42, -10.09, -10.11, -9.8, -9.48, -9.17, -9.17, -8.81, -7.85, -7.85, -7.44, -6.76, -5.8, -5.27, -4.94, -4.31, -4.55, -3.73, -3.23, -3.11, -2.37, -2.28, -2.28, -2.19, -2.1, -2.15, -2.34, -2.44, -1.77, -0.89, 0.0, 0.0, 0.0, 0.0, 0.0, 0.0, 1.18, 1.39, 1.69, 4.6, 10.0, 10.18, 8.93, 9.2, 9.39, 10.28, 5.4, 3.07, 4.15, 7.59, 11.62, 11.4, 11.84, 10.79, 9.17, 3.14, 0.0, -2.2, -1.83, 0.0, 9.63, 16.36, 12.39, 4.42, 1.22, -4.4, -10.79, -11.12, -11.44, 0.0, 6.2, 8.18, 13.99, 14.53, 13.59, 11.52, 10.75, 9.61, 10.46, 9.17, 6.8, 5.31, 2.81, 2.81, -12.09, -12.09, -11.8, -11.8, -11.8, -11.8, -11.8, -11.44, -11.23, -10.88, -11.23, -11.23, -10.99, -10.69, -10.69, -10.09, -9.8, -9.48, -9.17, -9.17, -8.53, -8.53, -7.85, -7.85, -7.44, -6.99, -6.3, -5.8, -5.33, -4.77, -4.17, -3.6, -3.6, -3.11, -3.11, -2.99, -2.99, -2.88, -2.88, -2.25, -2.34, -2.44, -1.7, -0.79, 0.0, 0.0, 0.0, 0.0, 0.0, 0.0, 0.0, 0.0, 0.0, 0.0, 7.59, 10.4, 7.9, 9.6, 10.28, 10.28, 7.9, 2.19, 1.84, 8.53, 10.4, 11.62, 11.16, 5.6, 0.0, 0.0, 0.0, 0.0, -3.25, -4.38, 0.0, 0.0, 0.0, 0.0, 1.72, 0.0, -5.0, -6.97, -4.24, 0.0, 0.0, 0.0, 10.43, 12.52, 11.06, 8.18, 4.66, 4.3, 7.4, 7.6, 7.4, 4.95, 2.5, 2.5, -12.09, -12.09, -11.8, -11.8, -11.8, -11.44, -11.44, -11.23, -11.23, -10.88, -10.88, -10.99, -10.99, -10.69, -10.69, -10.09, -9.48, -9.48, -9.17, -9.17, -8.53, -8.24, -8.24, -8.15, -7.44, -7.48, -7.04, -6.57, -5.86, -5.33, -4.6, -4.02, -4.24, -3.6, -3.47, -3.47, -3.68, -2.88, -2.88, -2.76, -3.07, -2.51, -2.71, -1.5, 0.0, 0.0, 0.0, -1.76, -1.84, -1.02, -1.23, -1.33, -1.69, 0.0, 5.95, 8.93, 10.8, 10.4, 9.6, 10.0, 5.0, 0.0, 2.37, 8.85, 9.66, 10.37, 11.09, 6.94, 0.0, -6.45, -2.72, 0.0, -1.53, -6.0, -10.12, -12.96, -12.56, -3.77, 0.0, 3.04, 0.0, 0.0, 0.0, 0.0, 1.29, 2.91, 6.0, 5.48, 2.5, 2.5, 2.43, 2.15, 3.39, 3.9, 4.67, 5.37, 2.72, 2.72, -11.72, -11.72, -11.72, -11.44, -11.44, -11.23, -11.23, -11.23, -10.88, -10.88, -10.88, -10.94, -10.99, -10.99, -10.69, -10.09, -9.77, -9.48, -9.17, -8.87, -8.24, -8.24, -7.87, -7.87, -7.48, -7.48, -7.04, -6.57, -5.86, -5.33, -5.33, -4.6, -4.6, -3.87, -4.08, -4.08, -3.47, -3.33, -3.53, -2.76, -2.95, -3.16, -2.51, -2.82, -2.19, 0.0, 0.0, -1.84, -3.25, -3.92, -4.4, -4.6, -5.29, 0.0, 5.95, 7.59, 6.95, 7.9, 8.22, 7.9, 4.8, 0.0, 2.93, 6.45, 6.7, 6.94, 10.73, 12.79, 9.3, 0.0, -7.59, -2.63, 0.0, 0.0, -7.4, -12.31, -11.8, -8.35, -3.01, 0.0, 1.4, 0.0, 0.0, 0.78, 2.99, 5.5, 4.74, 2.56, 0.0, 0.0, 2.09, 1.94, 3.07, 4.3, 2.65, 2.87, 3.42, 3.42, -11.72, -11.72, -11.72, -11.23, -11.23, -11.23, -11.23, -11.23, -10.88, -10.88, -10.94, -10.94, -10.94, -10.65, -10.39, -9.77, -9.77, -9.48, -9.48, -8.58, -8.24, -8.24, -7.87, -8.17, -7.78, -7.78, -7.34, -6.63, -6.14, -5.86, -5.33, -5.33, -5.14, -4.6, -4.43, -3.72, -3.92, -3.92, -3.39, -3.39, -3.61, -2.95, -3.16, -3.39, -3.67, -4.75, -2.93, -3.08, -3.25, -3.92, -4.23, -3.25, -1.69, 0.0, 4.8, 6.44, 6.17, 6.45, 5.95, 5.0, 5.0, 3.68, 6.7, 2.82, 0.0, 0.0, 5.2, 11.6, 6.7, 0.0, -2.69, 0.0, 5.81, 7.21, 1.31, -5.65, -8.94, -8.4, -7.4, -5.07, -2.18, 0.0, 0.0, 2.47, 5.15, 5.45, 5.18, 3.69, 3.47, 1.63, 1.83, 1.63, 1.51, 2.57, 2.21, 2.65, 3.33, 3.33, -11.72, -11.72, -11.72, -11.52, -11.23, -11.23, -10.88, -10.88, -10.88, -10.65, -10.59, -10.59, -10.94, -10.3, -10.06, -10.06, -9.77, -9.48, -9.19, -8.87, -8.58, -8.24, -8.17, -8.17, -7.78, -7.78, -7.09, -6.7, -6.96, -5.47, -6.14, -5.86, -5.33, -5.14, -5.14, -4.43, -4.26, -4.48, -3.77, -3.98, -3.25, -3.61, -3.85, -4.13, -4.13, -5.0, -4.3, -2.6, -2.1, -2.42, -2.33, -1.14, 0.0, 0.0, 1.69, 3.82, 5.0, 5.0, 5.95, 5.7, 5.4, 5.2, 3.68, 0.0, 0.0, 0.0, 0.0, 0.0, 0.0, 0.0, 0.0, 7.27, 12.39, 5.16, 4.78, 0.0, -4.51, -6.86, -8.51, -7.04, -3.01, 0.0, 1.94, 4.04, 4.66, 5.02, 4.95, 4.87, 3.93, 3.36, 1.25, 0.0, 0.0, 0.0, 3.3, 2.57, 0.0, 0.0, -11.35, -11.35, -11.16, -11.16, -10.88, -10.88, -10.88, -10.88, -10.65, -10.65, -10.59, -10.59, -10.59, -10.59, -10.06, -10.06, -9.77, -9.48, -9.48, -9.48, -8.58, -7.96, -8.24, -7.89, -7.51, -7.51, -7.4, -7.4, -6.7, -6.96, -6.29, -6.21, -5.92, -5.65, -5.65, -4.95, -4.95, -4.48, -4.48, -3.98, -3.82, -4.23, -4.23, -3.85, -4.3, -4.8, -3.85, -3.25, -2.6, -2.82, -1.84, -0.93, 0.0, 0.0, 0.0, 1.76, 2.1, 4.8, 4.6, 5.95, 7.59, 4.8, 3.68, 3.39, 3.53, 0.0, 0.0, -3.25, -6.45, -3.14, 1.98, 6.2, 3.68, -3.9, -3.29, -1.13, -1.05, -4.32, -3.25, -1.42, 0.0, 1.98, 2.72, 3.59, 3.09, 2.96, 3.57, 3.52, 3.69, 2.2, 1.17, 0.0, -1.06, -1.1, 0.0, 2.5, 2.98, 2.98, -11.35, -11.35, -11.16, -11.16, -11.16, -10.88, -10.65, -10.65, -10.65, -10.3, -10.59, -10.59, -10.59, -10.35, -9.72, -9.72, -9.72, -9.46, -9.17, -9.17, -8.87, -8.24, -8.24, -7.89, -7.51, -7.51, -7.4, -7.4, -7.09, -6.7, -5.98, -5.98, -5.98, -5.92, -5.92, -5.7, -5.2, -5.2, -5.0, -4.3, -4.54, -4.05, -4.23, -4.5, -4.5, -4.6, -3.95, -3.95, -3.39, -2.6, -2.6, -2.0, -1.07, 0.0, 0.0, 0.0, 0.0, 1.93, 4.6, 5.95, 8.85, 7.9, 7.9, 6.2, 5.7, 3.39, 0.0, 0.0, 0.0, 0.0, 2.45, 5.6, 0.0, -5.64, -7.89, -2.46, 1.04, 3.52, 4.08, 2.64, 0.89, 0.87, 0.79, 0.81, 0.79, 0.73, 1.53, 1.51, 1.77, 1.03, 0.0, 0.0, -1.77, -2.81, -1.11, 4.05, 6.8, 6.8, -11.44, -11.44, -11.16, -11.16, -11.16, -10.65, -10.65, -10.3, -10.3, -10.3, -10.59, -10.59, -10.35, -10.01, -10.01, -9.72, -9.46, -9.46, -9.17, -9.17, -8.87, -8.56, -8.24, -7.89, -7.89, -7.51, -7.82, -7.4, -7.09, -7.09, -6.4, -5.98, -5.98, -5.98, -5.7, -5.7, -5.7, -5.7, -5.0, -5.0, -5.05, -4.35, -4.6, -4.5, -4.31, -4.31, -4.4, -3.95, -3.95, -3.39, -3.39, -2.94, -2.1, -1.14, -1.33, 0.0, 0.0, 0.0, 2.39, 7.27, 6.95, 8.22, 7.59, 7.9, 6.2, 3.53, 3.39, 3.53, 0.0, 0.0, 0.0, 0.0, 0.0, -2.38, -4.77, -1.19, 4.24, 6.34, 5.61, 3.35, 0.0, -1.69, -2.32, -1.59, -0.82, 0.0, 0.0, 0.0, 0.0, 0.0, -1.13, -2.45, -3.04, -3.44, -2.13, 0.0, 5.81, 5.81, -11.07, -11.07, -11.07, -10.8, -10.59, -10.59, -10.3, -10.3, -10.3, -10.3, -10.35, -10.35, -10.35, -10.01, -10.01, -10.01, -9.46, -9.46, -9.46, -8.85, -8.56, -8.56, -8.24, -7.89, -7.89, -7.51, -7.51, -7.09, -7.09, -7.09, -6.63, -6.4, -6.16, -5.48, -5.75, -5.75, -5.75, -5.75, -5.75, -5.75, -5.05, -5.05, -4.6, -4.12, -4.12, -4.12, -4.12, -4.31, -4.6, -4.13, -4.44, -3.67, -2.95, -2.33, -1.28, -1.39, 0.0, 0.0, 2.39, 5.7, 7.27, 6.32, 4.8, 5.7, 3.25, 2.71, 3.25, 0.0, 0.0, 0.0, 0.0, 0.0, 0.0, 0.0, 0.0, 0.0, 2.3, 5.26, 4.97, 2.29, 0.0, -0.89, -2.72, -3.14, -2.4, -1.17, 0.0, -1.55, -1.38, -2.54, -2.54, -4.1, -4.43, -4.43, -3.04, 0.0, 4.87, 4.87, -11.07, -11.07, -11.07, -11.07, -10.59, -10.59, -10.59, -10.3, -10.3, -10.06, -10.35, -10.35, -10.01, -10.01, -10.01, -9.76, -9.46, -9.13, -9.13, -8.85, -8.85, -8.85, -7.95, -7.95, -7.61, -7.61, -7.24, -7.24, -6.84, -6.84, -6.84, -6.4, -6.4, -6.16, -5.48, -5.75, -5.75, -5.75, -5.75, -5.75, -5.52, -5.05, -5.39, -4.54, -4.2, -4.12, -4.31, -4.87, -4.6, -4.8, -4.44, -4.8, -3.82, -3.39, -2.39, -2.7, -1.62, 0.0, 2.39, 4.4, 5.46, 5.21, 4.6, 3.11, 3.39, 0.0, 0.0, 0.0, 0.0, 0.0, 0.0, 0.0, 3.07, 5.4, 3.87, -1.37, -5.15, -3.33, -3.32, -1.94, 0.0, 0.0, 0.0, 0.0, -1.98, 0.0, 0.0, 0.0, -1.61, -1.43, -3.14, -3.25, -3.25, -2.63, -1.29, 0.0, 7.44, 4.71, -10.96, -10.96, -10.7, -10.87, -10.59, -10.59, -10.59, -10.06, -10.06, -9.72, -9.72, -10.01, -10.01, -10.01, -9.76, -9.46, -9.46, -9.13, -9.13, -8.85, -8.53, -8.24, -8.24, -8.24, -7.61, -7.61, -7.61, -7.24, -7.24, -6.84, -6.84, -6.84, -6.84, -6.16, -6.16, -5.92, -5.75, -5.75, -5.75, -5.8, -5.8, -5.8, -5.39, -5.64, -3.78, -4.12, -4.87, -5.39, -5.18, -5.41, -4.92, -4.6, -3.82, -4.18, -3.45, -3.7, -2.97, 0.0, 2.28, 2.39, 4.4, 5.21, 4.8, 4.2, 0.0, 0.0, 0.0, 0.0, 0.0, 0.0, 0.0, 0.0, 0.0, 5.51, 8.75, 6.8, -4.66, -9.62, -10.26, -7.16, -3.5, 0.0, 0.0, 0.0, 0.0, 0.0, 0.0, 0.0, 0.0, 0.0, 0.0, 0.0, 0.0, 0.0, 0.0, 5.11, 12.33, 7.44, -10.96, -10.96, -10.51, -10.51, -10.51, -10.23, -10.23, -10.01, -9.72, -9.72, -9.72, -9.72, -9.72, -9.76, -9.76, -9.46, -9.13, -9.13, -8.85, -8.53, -8.53, -8.24, -8.24, -8.24, -8.24, -7.61, -7.61, -7.61, -7.24, -7.24, -6.84, -6.84, -6.84, -6.84, -6.16, -6.16, -5.92, -6.2, -5.75, -5.8, -5.8, -5.85, -5.85, -5.78, -6.16, -4.66, -5.32, -6.11, -5.7, -5.52, -4.71, -5.06, -4.56, -3.81, -4.2, -4.66, -2.83, 0.0, 2.28, 2.28, 2.39, 4.2, 3.4, 3.11, 0.0, 0.0, 0.0, 0.0, 0.0, 0.0, 0.0, 0.0, 0.0, 0.0, 8.8, 15.2, 11.44, -3.9, -8.94, -7.89, -4.81, -2.04, 0.0, 0.96, 1.08, 1.25, 1.3, 1.34, 1.42, 1.15, 1.25, 1.38, 0.0, 0.0, 3.25, 11.5, 12.3, 12.33, -10.79, -10.79, -10.79, -10.51, -10.51, -10.23, -10.01, -10.01, -10.01, -10.01, -9.72, -9.46, -9.46, -9.46, -9.46, -9.13, -9.13, -9.13, -8.53, -8.53, -8.53, -8.24, -8.24, -8.24, -8.24, -7.9, -7.61, -7.61, -7.61, -7.24, -7.24, -6.58, -6.58, -6.58, -6.58, -6.58, -6.16, -6.2, -6.2, -5.8, -5.8, -5.85, -6.17, -6.17, -5.9, -5.75, -5.7, -6.05, -6.14, -5.64, -5.38, -5.21, -5.21, -4.74, -4.74, -4.44, -2.69, 0.0, 0.0, 0.0, 2.28, 2.28, 4.8, 4.4, 3.11, 3.25, 0.0, 0.0, 0.0, 0.0, 3.68, 0.0, 0.0, -4.38, 0.0, 10.9, 16.86, 11.43, 0.0, -4.81, -6.6, -4.05, 0.0, 0.96, 0.96, 1.15, 1.3, 0.0, 0.0, 0.0, 0.0, 0.0, 0.0, 3.01, 9.48, 11.92, 10.79, 10.79, -10.41, -10.41, -10.41, -10.79, -10.51, -10.51, -10.01, -10.01, -9.66, -9.42, -9.13, -9.13, -9.13, -9.13, -9.13, -9.13, -9.13, -8.85, -8.53, -8.53, -8.53, -8.24, -8.24, -8.24, -8.24, -7.9, -7.61, -7.61, -7.61, -7.61, -7.24, -6.97, -6.58, -6.58, -6.58, -6.58, -6.58, -6.45, -6.2, -6.2, -5.8, -6.11, -5.85, -6.27, -6.54, -5.8, -5.7, -5.64, -5.76, -5.76, -5.76, -5.36, -5.36, -5.36, -4.94, -4.21, 0.0, 0.0, 0.0, 0.0, 0.0, 2.17, 2.06, 0.0, 3.11, 3.11, 2.49, 0.0, 3.25, 6.2, 8.22, 0.0, 0.0, -6.94, -10.43, -3.9, 3.6, 10.56, 13.25, 9.42, 7.77, 4.7, 2.72, 1.94, 1.66, 0.0, 0.0, 0.0, 0.0, 0.0, 0.0, 0.0, 0.0, 10.73, 11.12, 9.17, 9.17, 9.17, -10.41, -10.41, -10.41, -10.41, -10.15, -9.94, -9.94, -9.94, -9.66, -9.42, -9.42, -9.13, -9.13, -9.13, -9.13, -9.13, -8.85, -8.85, -8.53, -8.53, -8.24, -8.24, -8.24, -8.24, -8.24, -7.9, -8.2, -7.89, -7.61, -7.61, -7.61, -7.24, -6.97, -6.58, -6.58, -6.58, -6.87, -6.45, -6.45, -6.2, -6.04, -5.8, -6.11, -6.11, -6.54, -6.04, -5.09, -4.71, -4.83, -4.96, -4.96, -5.36, -5.36, -4.74, -4.21, -3.35, 0.0, 0.0, 0.0, 0.0, 0.0, 0.0, 2.17, 0.0, 3.11, 3.11, 2.49, 3.39, 7.27, 9.3, 6.2, 0.0, -3.68, -7.78, -10.3, -10.75, -5.14, 3.13, 11.74, 13.24, 13.39, 12.65, 9.16, 6.64, 3.38, 1.96, 0.0, 0.0, -1.58, -2.56, -1.38, 0.0, 5.15, 11.99, 5.8, 5.8, 5.8, 5.8, -10.41, -10.41, -10.41, -10.41, -10.41, -9.94, -9.94, -9.94, -9.94, -9.42, -9.42, -9.42, -9.13, -9.13, -9.13, -8.85, -8.85, -8.53, -8.53, -8.53, -8.24, -8.24, -8.24, -8.54, -8.54, -8.2, -8.2, -7.89, -7.89, -7.61, -7.61, -7.24, -6.97, -6.97, -6.58, -6.87, -6.87, -6.45, -6.45, -6.5, -6.04, -5.8, -6.11, -6.11, -6.11, -5.62, -5.09, -4.6, -4.4, -4.07, -4.2, -4.56, -3.63, -3.63, -3.14, -1.2, 0.0, 0.0, 0.0, 0.0, 0.0, 0.0, 0.0, 0.0, 0.0, 3.11, 3.11, 2.97, 7.27, 5.95, 5.2, 0.0, -2.71, -4.65, -7.44, -7.93, -3.9, 0.0, 5.87, 11.8, 15.87, 16.12, 13.48, 7.77, 6.16, 4.81, 3.09, 0.0, -1.63, -2.91, -1.77, 11.2, 12.58, 7.19, 5.8, 8.85, 8.85, 8.85, -10.41, -10.41, -10.41, -10.41, -10.23, -9.86, -9.86, -9.59, -9.59, -9.42, -9.42, -9.42, -9.13, -9.13, -8.85, -8.85, -8.53, -8.53, -8.53, -8.53, -8.24, -8.24, -8.24, -8.24, -8.54, -8.54, -8.2, -8.2, -7.89, -7.61, -7.61, -7.61, -6.97, -6.97, -6.58, -6.87, -6.87, -6.45, -6.76, -6.76, -6.04, -6.04, -6.04, -6.11, -5.62, -5.62, -5.09, -4.31, -4.6, -3.78, -4.07, -3.21, -3.49, -2.57, -1.75, -1.05, -1.05, -1.14, 0.0, 0.0, 0.0, 0.0, 0.0, 0.0, 1.75, 0.0, 3.11, 0.0, 0.0, 2.49, 0.0, 0.0, -2.82, -2.45, -2.63, -2.28, 0.0, 0.0, 2.72, 6.9, 14.13, 16.47, 12.79, 9.09, 8.25, 6.3, 4.93, 3.37, 0.0, -1.72, 4.24, 11.45, 10.41, 6.94, 10.41, 11.84, 11.84, 11.84, -10.04, -10.04, -10.04, -9.86, -9.86, -9.86, -9.86, -9.86, -9.59, -9.37, -9.08, -9.08, -8.82, -8.53, -8.53, -8.53, -8.53, -8.53, -8.53, -8.53, -8.24, -8.24, -8.24, -8.24, -8.24, -8.54, -8.2, -8.2, -7.89, -7.61, -7.61, -7.61, -6.97, -6.97, -7.26, -6.87, -6.87, -6.45, -6.76, -6.5, -6.04, -6.04, -6.04, -5.86, -5.62, -5.09, -5.09, -4.31, -4.31, -3.69, -3.78, -2.97, -3.21, -2.35, -1.67, -1.84, -1.05, -1.0, 0.0, 0.0, 0.0, 0.0, 0.0, 0.0, 0.0, 0.0, 0.0, 0.0, 0.0, 0.0, -2.49, -3.53, -2.82, -2.45, 0.0, 0.0, 0.0, 0.0, 3.16, 6.72, 10.08, 11.04, 11.0, 11.38, 10.79, 7.44, 5.26, 3.88, 1.72, 0.0, 8.85, 12.52, 8.53, 10.04, 11.84, 12.07, 12.07, 12.07, -10.04, -10.04, -9.86, -9.86, -9.86, -9.86, -9.86, -9.86, -9.59, -9.37, -9.37, -9.08, -8.82, -8.82, -8.53, -8.53, -8.53, -8.53, -8.53, -8.24, -8.24, -8.24, -8.24, -8.24, -8.24, -8.2, -8.2, -8.2, -7.61, -7.61, -7.61, -7.33, -7.26, -7.26, -7.26, -6.87, -6.87, -6.5, -6.5, -6.04, -6.04, -6.04, -6.04, -5.86, -5.86, -5.09, -5.09, -4.31, -4.31, -4.31, -3.78, -3.78, -2.97, -3.06, -2.57, -1.84, -1.84, -1.0, -1.0, 0.0, 0.0, 0.0, 0.0, 0.0, 0.0, 0.0, 0.0, 0.0, 0.0, 0.0, 0.0, 0.0, -2.28, -1.98, 0.0, 0.0, 0.0, 0.0, 5.18, 7.0, 6.14, 6.36, 11.29, 15.62, 15.15, 9.64, 6.8, 6.67, 4.1, -0.0, -0.0, 12.07, 11.03, 11.18, 11.18, 10.62, 10.62, 10.62, -9.86, -9.86, -9.86, -9.86, -9.86, -9.86, -9.86, -9.86, -9.86, -9.37, -9.37, -9.37, -9.08, -8.82, -8.82, -8.53, -8.53, -8.53, -8.24, -8.24, -8.24, -8.24, -8.24, -8.24, -7.9, -7.9, -7.9, -7.9, -7.9, -7.61, -7.9, -7.26, -7.26, -7.26, -6.87, -6.87, -6.61, -6.5, -6.5, -6.04, -6.04, -6.04, -5.86, -5.86, -5.86, -5.3, -5.09, -5.09, -4.31, -4.31, -3.53, -3.78, -2.97, -2.83, -2.57, -1.67, -1.84, -0.89, -1.0, -1.0, 0.0, 0.0, 0.0, 0.0, 0.0, 0.0, 0.0, 1.84, 1.84, 1.93, 1.93, 0.0, 0.0, -1.98, -2.06, 0.0, 0.0, 2.2, 3.93, 5.18, 4.95, 5.65, 10.54, 14.8, 14.45, 9.89, 9.6, 10.28, 11.62, 5.6, 8.53, 11.62, 10.73, 10.28, 9.7, 9.32, 9.32, 9.32, -9.86, -9.86, -9.86, -9.5, -9.5, -9.3, -9.3, -9.66, -9.66, -9.37, -9.37, -9.37, -9.37, -8.82, -8.82, -8.53, -8.24, -8.24, -8.24, -8.24, -8.24, -8.24, -7.9, -7.9, -7.9, -7.9, -7.9, -7.9, -7.9, -7.9, -7.26, -7.26, -7.26, -6.98, -6.61, -6.9, -6.5, -6.5, -6.5, -6.04, -6.04, -6.04, -5.54, -5.86, -5.86, -5.86, -5.09, -5.09, -4.87, -4.31, -4.6, -3.78, -3.61, -3.06, -2.35, -2.44, -1.67, -1.75, -0.89, -1.0, -1.0, 0.0, 0.0, 0.0, 0.0, 0.0, 0.0, 0.0, 2.28, 1.93, 1.93, 0.0, 0.0, -1.84, -1.98, 0.0, 0.0, 0.0, 2.28, 2.09, 3.58, 3.58, 6.35, 8.4, 9.57, 3.68, 12.79, 10.41, 7.59, 10.0, 11.4, 11.46, 11.06, 10.62, 9.89, 9.54, 9.54, 9.54, -9.86, -9.86, -9.5, -9.5, -9.3, -9.3, -9.3, -9.3, -9.3, -9.02, -9.02, -9.37, -9.37, -9.12, -8.82, -8.82, -8.24, -8.24, -8.24, -8.24, -8.24, -8.24, -7.9, -7.9, -7.9, -7.9, -7.9, -7.9, -7.9, -7.26, -7.26, -7.26, -6.98, -6.61, -6.9, -6.9, -6.5, -6.5, -6.5, -6.04, -6.04, -6.04, -5.54, -5.86, -5.86, -5.86, -5.09, -5.09, -5.09, -4.31, -4.6, -3.78, -3.78, -3.06, -3.06, -2.23, -2.44, -1.58, -1.75, -0.89, -1.0, -0.94, 0.0, 0.0, 0.0, 0.0, 0.0, 0.0, 0.0, 0.0, 0.0, 2.02, 0.0, 0.0, -2.19, -2.28, -2.45, 0.0, 0.0, 0.0, 2.02, 2.02, 3.93, 3.04, 0.0, 0.0, 8.93, 12.07, 6.44, 7.59, 10.21, 11.12, 11.51, 10.84, 10.05, 9.6, 9.6, 9.6, -9.86, -9.86, -9.5, -9.3, -9.3, -9.3, -9.3, -9.3, -9.3, -9.3, -9.02, -9.37, -9.37, -9.12, -8.82, -8.82, -8.53, -8.24, -8.24, -8.24, -8.24, -8.24, -7.9, -7.9, -7.9, -7.9, -7.9, -7.61, -7.26, -7.26, -7.26, -6.98, -6.61, -6.61, -6.9, -6.5, -6.5, -6.5, -6.5, -6.04, -6.04, -6.04, -6.04, -5.54, -5.54, -5.86, -5.62, -5.09, -5.09, -4.87, -4.6, -4.4, -3.78, -2.83, -3.06, -2.23, -2.44, -1.67, -1.58, -0.89, -0.84, -0.94, -1.07, -1.07, -1.25, 0.0, 0.0, 0.0, 0.0, 0.0, 0.0, 0.0, 0.0, 0.0, -2.49, -2.19, -2.37, -2.45, -2.13, 0.0, 0.0, 0.0, 2.09, 0.0, -1.32, 0.0, 5.23, 12.96, 8.22, 6.69, 8.94, 10.6, 11.03, 11.18, 10.05, 9.75, 9.75, 9.75, -9.5, -9.5, -9.5, -9.3, -9.3, -9.3, -9.3, -9.3, -9.3, -9.3, -9.02, -9.37, -9.12, -9.12, -9.12, -8.82, -8.82, -8.53, -8.24, -8.24, -8.24, -8.24, -7.9, -7.9, -7.61, -7.61, -7.61, -7.26, -7.26, -7.26, -6.98, -6.61, -6.61, -6.9, -6.5, -6.5, -6.5, -6.5, -6.5, -6.04, -6.04, -6.04, -6.04, -5.54, -5.54, -5.54, -5.54, -5.09, -5.09, -4.87, -4.6, -4.4, -3.61, -2.83, -3.06, -2.23, -2.23, -1.67, -1.58, -1.58, -0.84, -0.94, -0.94, -1.07, -1.25, -1.25, -1.49, 0.0, 0.0, 0.0, 0.0, -2.02, 0.0, 0.0, 3.25, 0.0, -2.28, -2.37, -3.96, -3.96, -2.13, 0.0, 1.52, 1.46, 2.67, 0.0, 6.8, 12.58, 10.04, 7.56, 8.49, 9.7, 10.0, 10.27, 10.05, 9.63, 9.63, 9.63, -9.5, -9.5, -9.5, -9.3, -9.3, -9.3, -9.3, -9.3, -9.3, -9.3, -9.3, -9.12, -9.12, -9.12, -9.12, -9.12, -8.82, -8.53, -8.53, -8.24, -8.24, -7.9, -7.9, -7.61, -7.61, -7.61, -7.61, -7.26, -6.98, -6.98, -6.61, -6.61, -6.9, -6.9, -6.5, -6.5, -6.5, -6.5, -6.5, -6.04, -6.04, -6.04, -6.04, -6.04, -5.54, -5.54, -5.54, -4.8, -5.09, -5.09, -4.31, -4.31, -3.61, -2.97, -2.83, -2.06, -2.23, -1.52, -1.44, -1.58, -1.75, -0.84, -0.94, -0.94, -1.14, -1.14, -1.32, -1.58, 0.0, -2.6, -3.39, 0.0, 0.0, 0.0, 2.39, 1.93, 0.0, -2.28, -4.65, -6.44, -4.65, -2.63, 2.07, 6.63, 8.62, 2.53, 13.86, 9.6, 8.93, 7.9, 7.9, 9.46, 10.09, 10.0, 10.0, 9.04, 9.04, 9.04, -9.5, -9.5, -9.3, -9.3, -9.3, -9.3, -9.3, -9.3, -9.3, -9.08, -9.08, -8.78, -8.78, -9.12, -9.12, -9.12, -8.78, -8.5, -8.22, -8.22, -7.93, -7.61, -7.61, -7.61, -7.61, -7.61, -6.98, -6.98, -6.98, -6.98, -6.61, -6.61, -6.9, -6.5, -6.5, -6.5, -6.5, -6.5, -6.04, -6.04, -6.04, -6.04, -5.8, -5.8, -5.32, -5.32, -5.32, -4.8, -4.8, -5.09, -4.31, -4.31, -3.37, -2.97, -2.83, -2.17, -2.06, -2.23, -1.44, -1.58, -1.58, -1.75, -1.95, -1.95, -2.21, -2.21, -2.33, -2.33, -2.33, -2.6, -3.39, 0.0, 0.0, 0.0, 0.0, 0.0, 0.0, -2.19, -6.97, -7.24, -7.51, -6.4, 0.0, 4.56, 9.05, 2.72, 13.39, 11.18, 10.0, 8.59, 7.56, 9.17, 9.97, 10.4, 10.0, 9.45, 9.45, 9.45, -9.5, -9.5, -9.3, -9.3, -9.3, -9.3, -9.3, -9.3, -9.08, -9.08, -9.08, -8.78, -8.78, -8.78, -8.78, -8.78, -8.78, -8.5, -8.22, -8.22, -8.22, -7.61, -7.61, -7.61, -7.61, -6.98, -6.98, -6.98, -6.98, -6.61, -6.61, -6.9, -6.9, -6.24, -6.24, -6.24, -6.5, -6.5, -6.04, -6.04, -6.04, -5.8, -5.8, -5.8, -5.32, -5.32, -5.32, -4.8, -4.8, -4.8, -4.05, -3.53, -3.37, -2.76, -2.63, -2.83, -2.06, -2.06, -2.23, -1.44, -1.58, -1.58, -1.75, -1.95, -1.95, -2.33, -2.33, -3.35, -3.35, -5.7, -5.7, -3.39, -3.25, 0.0, 0.0, 0.0, -1.93, -2.02, -6.44, -6.97, -9.17, -8.31, -3.79, 0.0, 2.35, 0.0, 6.08, 15.2, 10.0, 7.9, 7.14, 7.78, 9.53, 10.09, 9.3, 9.7, 9.7, 9.7, -9.3, -9.3, -9.3, -9.3, -9.3, -9.3, -9.3, -9.08, -9.08, -9.08, -9.08, -9.08, -8.78, -8.78, -8.78, -8.78, -8.78, -8.52, -8.22, -8.22, -8.22, -8.22, -7.61, -7.32, -6.98, -6.98, -6.98, -6.98, -6.98, -6.34, -6.63, -6.63, -6.24, -6.24, -6.24, -6.24, -6.24, -6.5, -6.04, -6.04, -6.04, -5.8, -5.8, -5.32, -5.32, -5.32, -5.32, -4.8, -4.8, -4.8, -4.05, -3.31, -3.31, -2.76, -2.63, -2.63, -2.06, -2.06, -2.23, -1.52, -1.44, -1.58, -1.58, -1.84, -1.84, -2.98, -3.14, -3.14, -4.0, -5.7, -5.7, -5.7, -3.11, -2.97, -3.49, -3.49, -3.49, -3.49, -6.17, -6.97, -5.6, -6.0, -4.66, -4.23, -1.97, 0.0, 0.0, 14.84, 9.77, 6.97, 5.98, 6.67, 7.24, 9.27, 9.67, 9.67, 9.67, 9.67, -9.3, -9.3, -9.3, -9.3, -9.3, -9.3, -9.08, -9.08, -9.08, -9.08, -9.08, -8.78, -8.78, -8.78, -8.78, -8.78, -8.52, -8.52, -8.22, -8.22, -8.22, -8.22, -7.6, -7.32, -6.98, -6.98, -6.98, -6.98, -6.34, -6.63, -6.63, -6.63, -6.24, -6.24, -6.24, -6.24, -6.24, -5.8, -5.8, -5.8, -5.8, -5.8, -5.8, -5.32, -5.32, -5.32, -4.8, -4.8, -4.8, -4.23, -4.05, -3.31, -3.31, -2.58, -2.63, -2.63, -2.5, -2.69, -2.06, -2.23, -1.52, -1.52, -1.67, -1.67, -2.69, -2.69, -2.83, -4.0, -4.0, -4.0, -5.46, -7.9, -7.27, -5.21, -4.2, -4.2, -4.2, -2.39, -3.25, -4.32, -4.65, -4.24, -4.05, -3.59, -3.47, -1.73, -1.51, 3.9, 11.9, 6.65, 6.08, 5.4, 6.94, 9.17, 9.82, 10.04, 10.04, 10.04, -9.58, -9.58, -9.3, -9.3, -9.3, -9.3, -9.08, -9.08, -9.08, -9.08, -9.08, -8.78, -8.78, -8.78, -8.78, -8.52, -8.52, -8.52, -8.22, -7.9, -7.9, -7.9, -7.6, -7.6, -6.98, -6.98, -7.27, -7.27, -6.63, -6.63, -6.63, -6.63, -6.24, -6.24, -6.24, -6.24, -6.24, -5.8, -5.8, -5.8, -5.8, -5.8, -5.32, -5.32, -5.32, -4.8, -4.8, -4.8, -4.8, -4.8, -4.05, -3.87, -3.31, -2.58, -2.58, -2.46, -2.63, -2.5, -2.06, -2.06, -2.23, -2.23, -2.23, -2.44, -2.44, -2.44, -2.83, -3.63, -4.0, -3.63, -4.98, -7.9, -5.7, -5.95, -5.21, -4.4, -3.65, -1.62, -1.69, -1.76, -1.98, -3.56, -5.63, -4.95, -4.72, -1.84, 0.0, 0.0, 3.47, 13.86, 7.51, 8.24, 8.53, 9.36, 10.01, 10.24, 10.24, 10.24, -9.21, -9.21, -8.94, -8.94, -8.94, -8.73, -9.08, -9.08, -9.08, -9.08, -9.08, -8.78, -8.78, -8.78, -8.78, -8.19, -8.19, -8.19, -8.19, -7.9, -7.9, -7.9, -7.9, -7.6, -7.27, -7.27, -7.27, -6.9, -6.63, -6.63, -6.63, -6.63, -6.24, -6.24, -6.24, -6.24, -6.24, -5.8, -5.8, -5.52, -5.8, -5.32, -5.32, -5.32, -5.32, -4.8, -4.8, -4.8, -4.8, -4.6, -4.05, -3.31, -3.31, -2.58, -2.58, -2.46, -2.46, -1.87, -2.01, -2.06, -2.06, -2.06, -2.23, -2.23, -2.44, -2.44, -3.32, -3.32, -3.63, -3.63, -4.56, -4.98, -5.46, -6.97, -5.21, -4.4, -3.11, -1.62, -1.69, -1.76, -3.68, -5.11, -6.88, -5.99, -4.55, -1.67, 0.0, 1.34, 2.38, 2.43, 7.69, 13.41, 11.6, 10.73, 10.94, 11.2, 11.2, 11.2, -9.21, -9.21, -8.94, -8.94, -8.94, -8.73, -9.08, -9.08, -9.08, -9.08, -9.08, -8.78, -8.78, -8.78, -8.78, -8.19, -8.19, -8.19, -8.19, -7.9, -7.9, -7.9, -7.9, -7.6, -7.27, -7.27, -7.27, -6.9, -6.63, -6.63, -6.63, -6.63, -6.24, -6.24, -6.24, -6.24, -6.24, -5.8, -5.8, -5.52, -5.8, -5.32, -5.32, -5.32, -5.32, -4.8, -4.8, -4.8, -4.8, -4.6, -4.05, -3.31, -3.31, -2.58, -2.58, -2.46, -2.46, -1.87, -2.01, -2.06, -2.06, -2.06, -2.23, -2.23, -2.44, -2.44, -3.32, -3.32, -3.63, -3.63, -4.56, -4.98, -5.46, -6.97, -5.21, -4.4, -1.62, -1.62, -1.69, -1.76, -3.68, -4.93, -6.65, -6.4, -4.62, -1.54, 0.0, 2.78, 3.77, 4.15, 4.81, 8.2, 13.75, 13.01, 11.72, 11.09, 11.09, 11.09]}]